[{"header": {"dx": 0.06612293990616946, "dy": 0.0552356325346848, "nx": 98, "ny": 59, "la1": 35.046912555036876, "la2": 31.78801023549047, "lo1": -121.43107172385933, "lo2": -114.95102361305473, "refTime": "2026040919", "parameterCategory": 1, "parameterNumber": 2}, "data": [14.47, 14.47, 14.47, 14.47, 14.47, 14.47, 14.47, 14.47, 13.99, 13.99, 13.67, 11.51, 12.39, 11.06, 10.18, 10.73, 10.73, 10.73, 10.73, 10.28, 9.39, 9.39, 8.94, 8.82, 7.47, 5.95, 2.8, 0.0, -3.47, -3.76, -4.02, -3.76, -3.22, -2.49, -1.1, 0.0, 0.0, 1.18, 1.49, 3.6, 6.01, 8.43, 9.97, 10.79, 12.79, 14.21, 15.8, 17.26, 17.52, 15.68, 12.79, 11.58, 11.18, 10.73, 11.14, 11.06, 11.51, 11.36, 11.8, 11.61, 11.61, 11.61, 11.11, 10.68, 11.11, 11.11, 11.61, 11.61, 11.61, 12.04, 11.96, 11.71, 11.28, 10.84, 9.92, 9.49, 10.28, 11.4, 12.88, 12.52, 10.28, 6.94, 4.11, 2.6, 0.0, 5.81, 8.05, 8.49, 8.49, 8.94, 10.28, 11.06, 10.0, 10.04, 8.01, 7.28, 6.24, 5.98, 14.03, 14.47, 14.47, 14.47, 14.47, 14.47, 14.9, 14.9, 13.7, 13.7, 13.15, 12.71, 11.46, 10.41, 11.46, 11.02, 10.28, 11.62, 10.28, 9.83, 10.28, 10.28, 9.39, 8.94, 6.23, 4.74, 2.12, 0.0, 0.0, -3.0, -2.49, -2.32, -1.84, -1.84, -1.03, 0.0, 0.0, 0.0, 1.4, 2.83, 5.06, 8.22, 10.12, 11.72, 14.29, 16.24, 18.36, 17.94, 16.76, 13.36, 11.58, 11.18, 11.18, 10.73, 10.7, 11.51, 11.36, 11.8, 11.61, 11.61, 11.61, 11.61, 11.18, 11.18, 11.18, 11.61, 11.61, 11.61, 11.61, 12.04, 12.46, 11.96, 11.33, 10.84, 10.41, 9.97, 11.02, 11.4, 12.88, 12.52, 10.28, 6.94, 4.11, 2.6, 0.0, 5.81, 8.05, 8.49, 8.49, 8.94, 10.28, 11.06, 10.0, 10.04, 8.01, 7.28, 6.24, 5.98, 14.11, 14.55, 14.47, 14.47, 14.47, 14.47, 14.9, 14.11, 14.11, 13.28, 11.62, 9.75, 11.03, 10.68, 10.05, 10.32, 10.84, 11.09, 11.06, 11.18, 9.83, 10.73, 11.18, 10.28, 8.94, 6.4, 3.0, 1.63, 1.63, 0.0, 0.0, 0.0, 0.0, 0.0, 0.0, 0.0, 0.0, 0.0, 1.33, 2.49, 5.2, 8.51, 12.03, 13.96, 16.99, 18.57, 19.52, 18.08, 13.36, 10.73, 10.28, 10.73, 10.7, 11.05, 10.49, 11.36, 11.8, 11.61, 12.09, 12.09, 12.09, 11.61, 11.61, 11.61, 11.61, 11.61, 12.09, 12.09, 12.09, 12.09, 12.53, 12.68, 12.37, 11.05, 10.6, 10.6, 10.7, 13.36, 13.86, 13.41, 10.28, 7.94, 7.06, 4.74, 0.0, 5.06, 7.63, 8.33, 8.82, 9.83, 12.52, 12.79, 11.62, 9.42, 6.7, 6.24, 5.46, 6.01, 14.11, 14.11, 14.55, 14.47, 14.47, 14.47, 14.9, 14.11, 13.7, 12.87, 11.21, 9.96, 11.45, 10.27, 10.27, 9.7, 10.88, 11.3, 11.71, 11.09, 11.18, 10.28, 11.18, 11.62, 10.73, 9.83, 5.06, 2.66, 1.4, 2.82, 3.15, 4.0, 5.36, 7.44, 4.96, 2.28, 1.93, 2.19, 2.52, 5.45, 8.28, 11.73, 14.37, 15.01, 15.59, 15.54, 14.95, 11.14, 10.28, 10.73, 10.7, 11.51, 11.51, 11.36, 11.8, 11.8, 12.27, 12.27, 12.27, 12.27, 12.27, 12.27, 11.61, 11.61, 11.61, 12.04, 12.09, 11.95, 12.01, 12.62, 13.62, 14.62, 14.71, 12.52, 10.28, 10.73, 10.73, 13.41, 15.65, 13.41, 8.49, 7.08, 7.06, 5.6, 6.7, 7.44, 8.0, 7.89, 8.82, 12.52, 14.3, 12.58, 8.53, 5.75, 5.21, 6.3, 6.01, 5.72, 14.11, 14.11, 14.55, 14.55, 14.47, 13.7, 14.11, 14.11, 13.7, 11.88, 10.35, 9.2, 11.03, 10.75, 9.86, 10.09, 9.86, 10.8, 11.3, 11.3, 12.35, 10.52, 10.52, 11.4, 10.62, 11.18, 9.54, 6.64, 2.28, 2.69, 3.32, 6.95, 10.4, 11.46, 11.18, 10.84, 9.3, 7.19, 3.39, 6.81, 10.66, 12.33, 12.16, 11.72, 12.3, 11.56, 11.44, 11.13, 10.73, 10.73, 11.18, 11.59, 11.59, 11.95, 11.96, 12.41, 12.41, 12.41, 12.41, 12.41, 11.96, 11.8, 11.61, 11.61, 12.04, 12.04, 12.09, 12.09, 12.96, 13.44, 14.5, 15.51, 16.06, 15.2, 12.52, 9.36, 9.8, 11.62, 14.3, 13.79, 7.11, 6.94, 6.45, 6.13, 6.08, 7.89, 8.48, 8.82, 11.62, 14.3, 13.01, 8.53, 3.98, 2.46, 4.66, 6.01, 6.87, 6.32, 14.11, 14.11, 13.57, 13.99, 13.99, 13.7, 14.11, 13.7, 12.65, 11.88, 9.66, 8.82, 10.38, 10.18, 10.27, 10.46, 10.09, 10.48, 10.24, 10.61, 11.72, 11.09, 13.15, 12.96, 12.07, 12.07, 11.62, 10.84, 10.18, 7.59, 4.2, 6.64, 8.8, 11.91, 13.41, 13.41, 12.96, 13.86, 0.0, 0.0, 7.2, 13.57, 12.35, 12.39, 12.52, 12.52, 12.07, 11.62, 11.62, 11.18, 11.18, 10.73, 11.18, 11.18, 11.62, 12.07, 12.04, 12.04, 12.41, 12.41, 11.51, 11.36, 11.36, 11.61, 12.04, 12.27, 12.24, 11.8, 12.71, 13.44, 14.06, 14.03, 15.3, 16.49, 15.65, 13.86, 8.9, 8.49, 8.49, 11.98, 6.88, 6.57, 6.57, 6.8, 6.28, 7.6, 8.91, 12.52, 14.11, 11.88, 8.85, 5.6, 2.58, 3.35, 6.01, 7.21, 7.44, 8.03, 14.11, 13.57, 13.57, 13.99, 13.99, 13.7, 13.7, 13.7, 12.27, 10.82, 8.53, 8.43, 9.2, 9.86, 11.45, 10.46, 10.8, 11.2, 10.61, 10.94, 11.33, 13.57, 14.66, 15.65, 15.2, 14.75, 15.2, 13.88, 11.6, 9.96, 10.73, 8.4, 9.13, 9.7, 11.62, 13.86, 14.3, 13.86, 13.86, -13.01, -6.4, 4.1, 7.44, 9.48, 11.8, 11.26, 11.2, 11.03, 11.55, 12.07, 11.62, 10.73, 11.18, 11.18, 11.62, 11.62, 11.59, 11.59, 11.59, 11.95, 11.49, 10.89, 11.36, 11.8, 11.8, 12.27, 12.24, 11.95, 12.39, 13.15, 13.59, 13.39, 13.59, 15.05, 16.48, 15.65, 13.86, 8.49, 8.94, 9.83, 7.31, 8.06, 8.91, 9.33, 9.2, 10.4, 11.87, 13.86, 14.11, 11.6, 8.01, 6.4, 3.99, 5.44, 7.44, 7.44, 8.18, 8.38, 13.67, 13.57, 13.57, 13.57, 13.99, 13.99, 13.7, 13.7, 12.27, 10.47, 7.9, 6.95, 8.23, 9.3, 9.77, 9.48, 10.55, 11.85, 11.33, 11.72, 12.25, 12.94, 13.19, 15.65, 15.2, 15.05, 15.43, 14.94, 12.65, 11.5, 11.21, 11.71, 10.41, 11.2, 10.0, 12.04, 12.96, 11.06, 6.45, -2.28, -0.0, 2.72, 5.98, 8.74, 10.05, 10.12, 9.3, 9.77, 10.62, 11.61, 10.47, 10.96, 11.57, 11.57, 11.62, 11.58, 11.59, 11.59, 11.59, 11.59, 11.59, 10.7, 11.15, 11.59, 11.51, 11.95, 12.39, 11.49, 11.49, 12.24, 12.68, 13.11, 13.74, 14.27, 15.15, 15.15, 12.96, 12.07, 12.52, 14.3, 15.55, 11.61, 9.33, 10.18, 11.45, 12.3, 11.87, 13.23, 12.83, 10.8, 8.59, 4.74, 5.37, 7.07, 7.81, 7.6, 8.18, 6.95, 13.67, 13.57, 13.57, 13.57, 13.99, 13.99, 13.99, 12.65, 12.27, 10.12, 7.26, 6.45, 7.78, 8.3, 8.85, 8.85, 9.84, 10.73, 11.37, 10.91, 11.99, 11.99, 13.15, 14.03, 12.9, 11.18, 9.83, 13.15, 14.84, 13.57, 12.87, 9.12, 5.64, 7.13, 8.01, 10.09, 10.96, 7.9, 2.02, 1.69, 2.13, 5.48, 5.48, 6.44, 7.26, 7.9, 9.27, 9.09, 8.82, 9.6, 10.88, 10.28, 11.44, 11.58, 11.62, 11.62, 11.62, 11.18, 11.62, 11.62, 11.18, 10.73, 10.28, 10.25, 10.41, 10.84, 11.76, 11.28, 10.58, 11.02, 12.39, 13.38, 14.3, 14.75, 14.27, 13.36, 11.62, 11.62, 13.86, 16.09, 16.54, 14.19, 9.33, 8.3, 9.55, 10.79, 11.45, 11.46, 10.73, 9.46, 6.21, 5.21, 5.82, 7.4, 8.17, 7.6, 7.68, 6.64, 13.67, 13.15, 13.57, 13.57, 13.99, 13.99, 13.19, 13.19, 11.17, 9.17, 8.01, 7.78, 8.53, 10.59, 10.52, 7.79, 9.31, 9.6, 10.43, 10.47, 9.17, 10.12, 10.82, 12.27, 13.57, 11.46, 8.49, 10.52, 13.7, 13.57, 12.65, 6.14, 3.07, 5.15, 8.53, 9.58, 8.05, 4.66, 3.25, 4.0, 4.8, 7.54, 6.5, 6.64, 6.01, 6.01, 7.15, 8.55, 9.81, 9.36, 9.49, 10.12, 10.69, 11.18, 11.62, 11.59, 11.49, 11.49, 11.49, 11.49, 11.14, 10.28, 9.75, 7.2, 8.21, 9.77, 11.03, 10.89, 11.59, 11.62, 12.48, 13.31, 14.09, 14.31, 13.75, 12.63, 11.44, 11.57, 12.01, 14.75, 17.43, 16.54, 12.89, 6.52, 6.44, 7.51, 9.2, 10.08, 10.28, 8.82, 6.45, 6.45, 6.61, 7.52, 8.17, 8.4, 8.03, 6.32, 13.67, 13.15, 13.57, 13.99, 13.99, 13.19, 13.19, 13.19, 11.9, 10.3, 9.17, 9.8, 10.82, 12.39, 13.28, 12.5, 12.73, 13.02, 14.65, 16.58, 15.93, 15.59, 15.91, 14.18, 14.55, 12.96, 10.28, 9.55, 11.12, 11.88, 11.12, 7.19, 5.4, 6.98, 7.9, 10.35, 9.08, 5.46, 4.5, 5.36, 6.32, 6.95, 7.81, 6.95, 5.86, 5.53, 6.45, 7.58, 8.17, 8.72, 9.49, 9.49, 9.79, 10.28, 10.73, 11.14, 11.46, 11.45, 11.34, 11.13, 10.75, 6.3, 4.5, 5.21, 7.4, 9.2, 10.5, 11.71, 12.07, 11.93, 12.04, 12.14, 13.11, 13.28, 12.58, 12.62, 12.04, 11.3, 12.42, 13.41, 15.2, 15.87, 15.2, 12.04, 6.32, 4.29, 6.01, 7.07, 9.54, 8.49, 6.26, 7.15, 6.71, 6.64, 7.97, 9.89, 8.8, 7.07, 13.32, 13.15, 13.57, 13.99, 13.99, 13.19, 13.19, 13.19, 11.9, 10.91, 10.18, 10.43, 11.52, 12.6, 12.72, 12.14, 12.49, 14.75, 16.09, 16.95, 16.51, 16.07, 15.62, 16.01, 13.33, 12.86, 12.14, 6.85, 7.53, 7.06, 7.89, 6.99, 5.84, 5.15, 8.93, 7.9, 7.27, 6.01, 6.32, 6.73, 6.73, 7.15, 7.13, 6.64, 4.6, 3.99, 5.31, 6.98, 7.67, 8.0, 7.76, 8.72, 8.72, 8.72, 8.99, 9.21, 10.22, 12.0, 11.2, 7.27, -0.0, 1.62, 3.51, 4.4, 6.31, 8.02, 9.81, 10.99, 11.13, 11.13, 11.11, 10.87, 10.9, 10.48, 10.79, 11.37, 11.26, 11.2, 11.87, 13.41, 13.86, 13.23, 12.27, 14.47, 7.59, 3.49, 3.32, 5.63, 7.15, 8.0, 7.45, 7.6, 7.15, 6.71, 8.49, 10.18, 9.46, 6.8, 13.32, 13.32, 13.75, 14.18, 14.18, 13.56, 13.56, 13.15, 12.42, 11.28, 11.09, 11.29, 12.09, 13.13, 14.53, 14.79, 14.23, 13.41, 12.95, 13.39, 13.34, 13.26, 13.28, 13.28, 11.95, 12.39, 12.3, 11.4, 8.67, 7.12, 7.6, 7.85, 7.2, 6.57, 5.58, 5.49, 4.65, 6.11, 6.11, 6.79, 7.44, 7.2, 7.64, 4.96, 3.8, 2.99, 2.99, 6.01, 6.01, 6.98, 6.08, 7.03, 7.42, 5.69, 5.86, 5.86, 6.64, 9.97, 0.0, -4.22, -0.86, 1.63, 2.49, 3.36, 4.25, 6.0, 7.44, 8.53, 8.41, 9.86, 10.84, 10.41, 7.27, 6.5, 6.7, 8.85, 9.17, 10.04, 11.2, 12.07, 10.73, 11.62, 12.27, 11.99, 12.14, 5.6, 2.1, 1.93, 5.9, 6.01, 7.07, 6.4, 7.45, 7.06, 8.49, 9.83, 7.97, 6.88, 13.32, 13.32, 13.32, 13.75, 14.18, 13.15, 13.15, 13.15, 12.42, 12.42, 12.13, 11.9, 12.09, 13.13, 14.39, 15.07, 15.71, 15.12, 14.73, 14.3, 14.3, 14.29, 14.69, 15.58, 15.5, 15.39, 14.07, 13.95, 13.15, 12.41, 11.18, 9.83, 8.41, 6.94, 6.21, 5.49, 5.15, 5.77, 6.82, 7.6, 7.76, 7.2, 8.23, 5.0, 1.93, 1.93, 2.54, 5.9, 7.59, 7.59, 6.95, 9.2, 8.05, 5.15, 4.65, 5.77, 6.64, 8.91, 10.73, -1.84, -1.7, -0.0, 1.39, 1.33, 2.59, 4.25, 5.18, 5.52, 6.5, 6.48, 7.59, 10.04, -10.6, -6.95, -5.46, -5.0, -7.59, -10.28, 9.83, 9.83, 9.83, 10.28, 12.52, 13.57, 11.62, 13.41, 3.14, 0.0, 0.0, 4.22, 5.21, 5.37, 5.72, 6.79, 8.67, 9.39, 8.05, 7.52, 13.32, 13.32, 13.32, 13.75, 13.75, 13.15, 13.15, 13.15, 12.79, 12.79, 12.13, 12.27, 12.65, 12.82, 14.17, 15.36, 15.87, 16.15, 16.0, 15.62, 15.2, 15.2, 15.63, 16.01, 15.93, 16.25, 15.66, 15.26, 14.79, 14.57, 13.86, 12.37, 11.18, 8.05, 7.06, 6.52, 6.28, 6.55, 8.0, 7.63, 7.85, 7.89, 7.59, 4.8, 2.17, -0.0, 2.17, 3.8, 5.36, 5.9, 8.23, 8.23, 4.4, 1.67, 1.73, 4.22, 6.8, 8.33, 8.4, 2.7, -0.0, -0.0, 1.26, 1.33, 2.7, 2.7, 3.87, 5.7, 6.95, 7.9, 7.56, -3.53, -11.53, -10.73, -10.28, -9.83, -9.75, -7.27, -0.0, 7.27, 9.83, 6.95, 6.64, 10.73, 10.28, 11.62, 13.41, 0.0, -2.28, 2.69, 5.46, 3.8, 4.29, 5.93, 7.2, 8.49, 8.05, 8.05, 13.32, 13.32, 13.32, 13.75, 13.75, 13.15, 13.15, 13.39, 12.79, 12.79, 13.48, 12.9, 12.65, 13.34, 14.21, 14.79, 15.79, 16.54, 16.78, 16.45, 16.07, 16.09, 16.09, 16.52, 16.37, 16.27, 16.3, 15.85, 15.41, 15.06, 15.2, 15.08, 13.7, 11.62, 8.05, 6.7, 6.8, 7.2, 8.06, 7.94, 6.88, 5.59, 4.83, 3.6, 1.95, -0.0, 2.06, 1.95, 3.6, 4.83, 5.1, 4.56, 4.83, 3.6, 4.22, 5.95, 6.8, 8.06, 8.18, 3.87, 2.17, 1.84, 2.06, 1.58, 1.49, 2.99, 3.77, 5.86, 7.68, 8.8, 8.33, -9.83, -12.52, -11.51, -8.94, -2.71, -0.0, 5.4, 8.22, 9.2, 10.08, 8.8, 0.0, 0.0, 8.05, 8.05, 9.2, 9.83, 0.0, 2.54, 5.21, 1.4, 3.91, 6.28, 8.22, 8.67, 8.43, 8.43, 13.32, 13.32, 13.75, 13.32, 13.32, 13.15, 13.39, 13.81, 13.39, 13.07, 13.48, 12.9, 13.59, 13.34, 13.99, 14.21, 14.84, 15.79, 16.76, 16.89, 16.52, 16.07, 16.09, 16.07, 15.93, 15.83, 15.96, 16.03, 16.03, 16.52, 16.99, 16.76, 15.47, 13.88, 7.15, 6.98, 7.12, 8.06, 7.47, 7.45, 5.72, 3.0, 3.15, 3.6, 3.49, 1.75, 2.17, 3.8, 4.71, 4.71, 4.96, 6.32, 6.32, 6.32, 8.0, 8.0, 8.3, 8.05, 6.64, 6.42, 6.17, 5.21, 4.71, 3.6, 4.46, 4.02, 5.37, 6.44, 8.3, 9.26, 9.83, -10.84, -12.96, -6.97, 1.64, 5.86, 8.24, 9.76, 10.01, 10.16, 9.6, 9.83, 0.0, -4.46, -6.01, 0.0, 8.06, 8.49, 7.6, 6.01, 0.0, 0.0, 1.49, 5.31, 8.03, 8.4, 9.03, 9.03, 13.32, 13.32, 13.75, 13.75, 13.32, 13.44, 13.39, 13.39, 13.81, 13.48, 13.48, 14.11, 13.59, 13.84, 13.84, 14.19, 14.73, 15.27, 16.05, 16.44, 16.07, 16.07, 15.65, 15.18, 15.57, 16.02, 16.54, 16.54, 16.52, 17.42, 17.36, 17.66, 16.96, 15.27, 12.47, 8.05, 7.1, 7.45, 7.45, 6.4, 3.4, 2.99, 3.6, 3.8, 3.32, 3.49, 5.36, 4.96, 4.96, 5.21, 5.21, 6.64, 7.81, 8.4, 8.0, 8.4, 8.72, 8.4, 7.87, 7.87, 7.87, 6.64, 7.44, 8.06, 7.6, 5.95, 6.07, 7.6, 9.83, 11.06, 12.07, 11.03, 7.73, 7.68, 7.93, 9.26, 10.37, 11.2, 11.38, 10.8, 10.21, 9.55, -6.32, -8.4, -6.64, 0.0, 8.94, 8.49, 8.49, 10.28, 6.95, 0.0, 0.0, 4.6, 8.23, 7.87, 8.05, 8.05, 13.44, 13.44, 13.44, 13.88, 13.44, 13.44, 13.39, 13.39, 13.99, 13.48, 13.48, 14.11, 13.99, 14.24, 13.84, 15.77, 13.62, 14.6, 15.3, 15.08, 15.56, 15.75, 15.23, 16.35, 15.02, 16.47, 13.59, 16.66, 16.91, 15.71, 17.02, 17.53, 17.25, 15.59, 14.84, 12.45, 9.83, 9.39, 9.83, 7.89, 5.59, 5.37, 4.46, 4.46, 5.1, 6.32, 6.32, 6.64, 5.21, 5.21, 5.21, 7.81, 7.81, 7.44, 8.0, 8.4, 8.4, 8.4, 8.8, 8.8, 8.8, 8.4, 8.0, 7.06, 7.81, 7.37, 7.01, 7.15, 8.9, 11.62, 13.19, 13.64, 15.43, 15.47, 13.87, 13.52, 12.8, 12.09, 12.2, 11.64, 9.33, -0.0, -9.83, -9.83, -9.83, -9.39, -10.28, 11.18, 10.73, 10.18, 9.83, 4.2, 0.0, 1.75, 6.95, 8.18, 7.27, 7.27, 13.44, 13.44, 13.44, 13.44, 13.44, 13.44, 13.39, 13.39, 13.99, 13.99, 13.7, 14.11, 14.7, 14.24, 14.24, 14.03, 13.62, 13.43, 14.84, 14.28, 16.0, 14.74, 14.2, 15.06, 14.56, 15.2, 15.44, 15.38, 16.33, 16.82, 17.39, 17.43, 17.43, 14.51, 15.19, 14.61, 12.86, 11.55, 10.28, 8.01, 7.45, 8.14, 7.63, 6.36, 4.8, 6.9, 6.79, 7.15, 6.64, 5.21, 5.21, 4.96, 6.32, 6.32, 6.28, 7.07, 9.13, 7.6, 8.48, 9.54, 9.11, 8.67, 8.24, 8.24, 7.45, 6.94, 7.01, 7.15, 8.49, 10.6, 12.3, 15.0, 17.13, 17.89, 16.69, 15.62, 14.28, 12.86, 12.07, 11.18, 10.18, -0.0, -8.67, -9.39, -8.94, -8.49, -8.49, -7.6, 11.18, 9.39, 9.54, 11.62, 0.0, 0.0, 6.64, 9.2, 7.27, 7.27, 13.44, 13.44, 13.44, 13.44, 13.44, 13.44, 12.98, 13.39, 13.99, 14.42, 13.7, 14.11, 14.7, 14.24, 14.24, 14.44, 13.62, 13.43, 11.38, 13.34, 15.19, 14.52, 13.55, 13.01, 14.29, 15.56, 15.61, 16.86, 17.43, 17.88, 17.84, 17.37, 17.43, 17.43, 16.99, 16.54, 14.75, 12.86, 11.62, 10.28, 8.49, 9.39, 9.83, 8.9, 6.98, 7.47, 7.28, 7.15, 6.32, 2.83, 2.69, 4.71, 4.46, 4.71, 6.01, 6.28, 7.37, 7.81, 9.83, 8.94, 8.94, 8.49, 8.49, 8.49, 7.6, 6.94, 7.01, 7.52, 7.85, 9.06, 10.85, 13.39, 16.0, 16.9, 16.07, 15.27, 13.11, 12.99, 11.87, 11.0, 10.28, 9.83, -9.39, -8.49, -8.94, -8.49, -8.94, -8.49, -8.49, 8.49, 8.94, 8.85, -0.0, 9.83, 0.0, 8.4, 8.4, 8.4, 13.75, 13.44, 13.44, 13.44, 13.44, 13.44, 12.98, 13.57, 13.99, 14.42, 14.11, 14.11, 14.28, 14.7, 14.24, 14.44, 14.03, 13.19, 12.99, 14.59, 15.91, 16.12, 15.53, 15.12, 15.85, 16.96, 17.17, 16.51, 16.54, 16.96, 17.34, 17.41, 17.43, 17.43, 16.99, 16.99, 15.65, 13.86, 12.52, 11.18, 10.28, 8.94, 8.94, 8.49, 7.12, 5.57, 8.06, 7.6, 4.71, 1.95, 1.84, 3.6, 4.46, 4.46, 5.69, 5.69, 6.18, 8.0, 9.26, 8.77, 7.47, 8.06, 8.38, 8.38, 8.05, 7.6, 7.6, 7.5, 7.31, 8.91, 8.55, 11.72, 14.53, 16.09, 6.98, 10.52, 12.36, 12.57, 12.45, 11.39, 11.12, 9.83, 9.11, 4.2, -0.0, -0.0, -2.83, -5.21, -8.0, -9.39, 11.18, -0.0, -0.0, -0.0, 8.49, 5.69, 6.32, 6.32, 13.75, 13.75, 13.44, 13.44, 13.44, 13.44, 13.96, 13.57, 13.99, 14.42, 14.56, 14.11, 14.7, 14.7, 14.84, 14.44, 14.03, 13.39, 13.8, 14.99, 16.21, 15.85, 15.08, 15.07, 16.37, 17.1, 17.74, 17.41, 16.99, 16.09, 16.54, 16.54, 16.54, 16.54, 16.54, 16.54, 16.09, 14.75, 12.96, 11.62, 10.73, 10.28, 9.83, 8.94, 8.05, 5.7, 7.63, 6.7, 2.4, -0.0, 1.84, 3.4, 3.4, 3.4, 3.4, 4.56, 5.06, 6.55, 8.3, 7.6, 6.9, 7.28, 8.06, 8.33, 8.05, 7.37, 6.51, 6.58, 7.94, 8.48, 7.87, 9.2, -0.0, -8.94, -6.26, -6.95, 2.81, 7.98, 10.18, 12.51, 12.22, 10.28, 8.6, 7.21, 4.66, 3.7, 2.58, -0.0, -2.02, -10.4, -12.52, -7.9, -0.0, -0.0, 8.49, 5.37, 5.69, 5.69, 13.75, 13.75, 13.75, 13.44, 13.44, 13.53, 13.53, 13.57, 13.99, 14.56, 14.56, 14.53, 14.7, 14.7, 14.84, 14.44, 14.44, 13.77, 14.21, 14.79, 15.69, 16.48, 15.85, 14.53, 15.09, 16.43, 17.31, 17.31, 17.41, 16.96, 16.09, 16.09, 16.09, 16.07, 16.05, 16.09, 16.09, 15.2, 13.41, 11.62, 10.28, 9.83, 10.28, 10.28, 8.94, 7.6, 8.33, 7.6, 3.4, 1.84, 2.99, 3.4, 1.49, 1.49, 3.2, 4.29, 4.19, 5.49, 7.28, 7.89, 6.23, 6.13, 5.72, 6.79, 6.0, 4.84, 7.2, 8.48, 8.77, 8.38, 8.05, 11.62, 14.3, 12.07, -11.62, -10.28, -8.48, 0.0, 4.52, 10.12, 12.46, 11.18, 9.11, 6.01, 5.2, 4.44, 3.7, 2.58, 1.54, -0.0, -9.39, -8.49, -8.49, 7.6, 7.6, 5.37, 5.69, 5.69, 13.75, 13.75, 13.75, 13.44, 13.44, 13.53, 13.53, 13.57, 13.99, 14.56, 14.56, 14.56, 14.7, 14.7, 14.84, 14.84, 14.6, 14.19, 14.19, 15.16, 15.27, 16.12, 16.21, 16.1, 15.43, 15.43, 16.88, 17.33, 17.33, 16.96, 16.96, 16.52, 15.65, 15.62, 16.06, 16.05, 16.05, 15.65, 14.3, 12.07, 9.83, 9.39, 9.83, 10.28, 9.83, 9.39, 8.05, 6.16, 5.81, 5.6, 4.46, 4.56, 1.4, 1.4, 2.82, 3.2, 3.2, 3.22, 6.08, 7.2, 7.81, 6.71, 6.51, 6.26, -0.0, 3.6, 6.32, 8.72, 8.82, 7.97, 8.77, 10.7, 13.86, 13.41, 13.86, 14.3, -12.72, -7.9, 0.0, 3.82, 11.99, 12.52, 9.58, 5.7, 4.71, 3.6, 3.8, 4.0, 4.0, 4.0, -0.0, -8.49, -8.05, -7.6, 7.15, 5.06, 5.06, 5.06, 13.75, 13.75, 13.75, 13.75, 13.53, 13.53, 13.53, 13.57, 13.99, 14.13, 14.56, 14.56, 14.7, 14.7, 14.84, 14.84, 14.95, 14.6, 14.6, 14.73, 14.73, 15.27, 16.12, 16.21, 16.1, 15.67, 15.87, 16.88, 17.33, 17.41, 16.96, 16.96, 16.52, 16.51, 15.95, 15.93, 16.05, 16.05, 15.61, 13.37, 11.18, 9.83, 9.83, 9.83, 10.28, 10.28, 9.83, 8.05, 6.68, 6.23, 5.64, 4.84, 3.4, 1.49, 2.54, 2.82, 1.73, 1.73, 3.2, 6.44, 7.89, 8.77, 7.6, 5.95, 1.32, 1.75, 6.64, 8.05, 8.49, 7.81, 8.06, 11.35, 11.59, 14.3, 14.72, 15.61, 15.53, 0.0, -2.54, 0.0, 9.17, 10.12, 4.98, 3.39, 2.09, 2.54, 3.8, 4.71, 4.96, 3.8, 2.83, -8.24, -8.49, -7.6, 7.15, 7.15, 0.0, 0.0, 13.75, 13.75, 13.75, 13.77, 13.53, 13.53, 13.53, 13.53, 13.57, 14.13, 14.56, 14.56, 15.09, 14.28, 14.84, 14.84, 14.95, 14.95, 14.6, 14.73, 14.73, 14.73, 15.27, 15.69, 15.79, 16.05, 15.67, 16.31, 16.76, 16.89, 16.89, 16.89, 16.97, 16.96, 16.43, 16.39, 16.35, 16.49, 16.5, 15.61, 13.82, 12.04, 10.7, 9.83, 10.28, 10.28, 10.28, 9.39, 8.05, 6.71, 5.81, 5.31, 5.75, 3.2, 2.82, 2.82, 1.49, 1.4, 3.0, 4.74, 7.89, 7.81, 9.21, 4.47, 1.75, 2.83, 6.64, 8.6, 8.49, 8.49, 8.77, 9.49, 11.05, 12.07, 12.94, 14.28, 16.48, 9.77, -4.96, -8.05, -7.59, -4.52, -1.77, -0.0, -0.0, 1.01, 3.6, 4.71, 3.8, 2.69, 2.06, 1.05, -6.7, -8.49, -7.6, 7.6, 7.15, 7.15, 13.75, 13.75, 13.77, 13.77, 13.53, 13.53, 13.53, 13.53, 13.96, 13.7, 14.13, 14.56, 14.66, 14.66, 14.42, 14.42, 14.84, 14.95, 14.95, 14.73, 14.73, 14.73, 14.84, 14.84, 15.27, 15.55, 15.61, 15.61, 16.26, 16.29, 16.31, 16.45, 16.89, 16.89, 16.88, 16.39, 16.37, 16.79, 16.82, 16.05, 14.6, 12.81, 11.14, 9.81, 10.26, 9.81, 10.18, 9.81, 8.91, 8.02, 6.23, 5.36, 5.31, 6.13, 3.2, 1.84, 1.4, 1.4, 2.82, 4.58, 6.21, 7.53, 6.7, 3.77, 3.52, 5.29, 7.76, 8.67, 8.94, 8.94, 9.35, 10.14, 10.41, 11.05, 11.51, 13.29, 14.55, 7.36, -7.15, -7.6, -6.63, -7.44, -5.34, -0.0, -0.0, 1.54, 3.4, 3.6, 2.33, 1.14, 2.21, 2.33, -0.0, -4.83, -7.2, 8.05, 7.6, 7.6, 13.77, 13.77, 13.77, 13.77, 13.53, 13.53, 13.53, 13.96, 13.96, 14.03, 14.13, 14.56, 15.09, 15.09, 14.84, 14.42, 14.42, 14.53, 14.53, 14.61, 15.04, 14.73, 14.73, 14.84, 14.84, 15.04, 15.04, 15.55, 15.98, 16.26, 16.29, 16.31, 16.45, 16.45, 16.44, 16.41, 16.17, 16.79, 16.82, 16.37, 15.49, 13.25, 11.49, 9.68, 8.9, 9.36, 10.49, 10.68, 10.55, 9.15, 8.38, 6.16, 4.89, 5.36, 5.36, 3.45, 1.73, 1.49, 2.82, 3.77, 5.06, 6.28, 4.22, 3.35, 4.66, 6.64, 7.64, 8.67, 8.49, 8.9, 9.68, 10.6, 10.89, 11.11, 11.79, 13.57, 13.5, 10.8, -6.64, -8.94, -6.36, -8.53, -8.18, -2.28, -0.0, 1.49, 1.98, 2.4, 2.54, 1.07, 2.21, 2.09, 2.99, -0.0, -2.4, -0.0, 8.05, 8.05, 13.77, 13.77, 13.77, 13.77, 13.77, 13.53, 13.53, 13.96, 13.96, 14.03, 14.03, 14.56, 14.66, 15.09, 15.53, 14.84, 14.42, 14.53, 14.53, 14.53, 15.04, 15.04, 15.04, 15.04, 15.04, 15.04, 14.61, 15.04, 15.78, 15.82, 15.85, 15.85, 15.87, 15.9, 16.31, 16.29, 16.22, 16.35, 16.82, 16.82, 15.93, 14.14, 12.2, 9.58, 7.94, 9.68, 11.64, 11.16, 9.48, 9.88, 9.58, 8.0, 5.7, 4.88, 5.36, 5.36, 3.68, 3.2, 2.99, 2.82, 3.0, 4.22, 3.77, 4.21, 5.44, 5.44, 6.52, 9.33, 7.6, 8.56, 9.24, 10.41, 11.36, 12.09, 12.45, 14.23, 14.69, 11.93, 10.75, -7.27, -9.83, -9.97, -11.6, -10.12, -2.54, -0.0, -0.0, 2.99, 2.49, 2.66, 2.82, 4.14, 4.71, 2.54, 1.4, -0.0, 8.49, 8.49, 13.33, 13.33, 13.77, 13.77, 13.77, 13.53, 13.53, 13.96, 13.96, 14.47, 14.47, 13.7, 14.66, 14.66, 15.09, 14.84, 14.84, 14.95, 14.95, 14.95, 15.04, 15.04, 15.04, 15.04, 15.04, 15.04, 14.61, 14.42, 14.86, 15.12, 15.61, 15.23, 15.27, 15.43, 15.87, 15.85, 16.22, 16.12, 16.35, 16.82, 16.37, 15.02, 12.63, 10.25, 8.55, 9.75, 12.18, 12.79, 7.93, 6.9, 8.22, 8.15, 6.16, 5.24, 4.92, 5.29, 6.13, 4.75, 4.22, 3.2, 3.72, 4.87, 5.44, 5.44, 6.01, 6.28, 6.8, 7.89, 8.94, 9.03, 8.17, 8.72, 11.05, 12.85, 14.08, 14.18, 13.77, 12.3, 12.27, 11.35, -7.9, -10.73, -11.18, -12.72, -11.99, -6.45, -0.0, 5.7, 6.01, 4.74, 4.22, 4.56, 4.75, 4.75, 4.0, 3.32, 6.32, 6.32, 13.33, 13.33, 13.33, 13.77, 13.77, 13.53, 13.53, 13.96, 13.96, 14.47, 14.47, 14.47, 14.13, 15.09, 15.09, 15.18, 14.84, 15.38, 15.38, 15.38, 15.38, 15.47, 15.04, 15.04, 15.04, 15.04, 14.53, 13.67, 15.53, 14.25, 14.93, 15.36, 15.44, 15.23, 15.27, 15.85, 15.78, 16.12, 16.12, 16.37, 16.37, 15.49, 13.5, 10.89, 9.68, 10.46, 12.37, 14.71, 13.86, 12.27, 10.08, 7.47, 5.94, 5.73, 4.85, 4.47, 5.29, 6.13, 5.93, 5.06, 4.43, 5.84, 6.52, 6.55, 7.07, 7.2, 7.21, 7.89, 8.94, 9.39, 8.05, 8.49, 10.73, 12.96, 16.43, 16.12, 12.36, 10.04, 11.5, 11.71, 11.03, -6.7, -11.95, -11.62, -12.79, -13.01, -6.2, 9.8, 10.84, 8.67, 7.63, 6.01, 5.37, 5.06, 4.71, 4.6, 4.71, 4.71, 13.33, 13.33, 13.33, 13.77, 13.77, 13.53, 13.53, 13.96, 13.96, 14.47, 14.47, 14.47, 14.13, 14.23, 15.09, 15.18, 15.18, 15.18, 14.95, 15.38, 15.38, 15.38, 15.47, 15.04, 14.61, 14.61, 14.53, 13.67, 12.93, 14.84, 13.89, 14.73, 15.27, 15.61, 15.67, 15.61, 15.78, 16.12, 16.12, 16.12, 16.37, 15.93, 14.16, 11.8, 10.37, 11.09, 12.62, 13.76, 13.83, 11.62, 8.94, 7.15, 6.26, 5.81, 5.36, 4.47, 4.47, 5.09, 5.21, 4.89, 4.46, 5.49, 6.01, 6.32, 6.7, 6.9, 7.06, 7.52, 8.49, 8.85, 8.77, 9.21, 9.39, 12.04, 15.62, 19.53, 12.51, 8.93, 8.42, 10.55, 11.61, 12.14, 0.0, -12.72, -13.41, -14.3, -14.75, 14.3, 12.07, 8.94, 8.49, 8.0, 3.8, 5.06, 4.74, 5.31, 4.83, 4.83, 13.33, 13.33, 13.33, 13.33, 13.77, 13.77, 13.53, 13.96, 13.96, 14.47, 14.47, 14.9, 14.13, 14.23, 14.66, 15.18, 15.18, 15.18, 15.25, 15.68, 15.38, 15.81, 15.47, 15.47, 14.61, 14.61, 14.53, 13.77, 13.89, 13.89, 14.18, 14.61, 15.04, 15.12, 15.55, 15.82, 15.78, 15.68, 16.05, 16.05, 16.12, 16.37, 15.05, 12.83, 11.4, 11.42, 12.14, 13.44, 13.62, 11.98, 9.81, 9.36, 8.49, 7.15, 6.26, 5.81, 5.81, 4.85, 4.0, 4.09, 5.06, 5.37, 5.37, 6.44, 5.59, 5.37, 6.52, 6.79, 8.33, 8.82, 8.06, 9.74, 10.28, 11.51, 14.66, 18.78, 14.75, 13.34, 11.87, 11.85, 13.27, 14.07, 13.88, 6.2, -13.44, -13.67, -13.57, 0.0, 11.71, 8.94, 7.15, 9.39, 8.94, 5.37, 5.95, 6.28, 5.69, 5.69, 13.33, 13.33, 13.33, 13.33, 13.77, 13.77, 13.53, 13.96, 14.4, 14.47, 14.9, 14.9, 14.9, 14.13, 14.23, 14.66, 14.75, 14.75, 14.75, 15.25, 15.68, 15.38, 15.38, 15.47, 15.04, 14.61, 14.61, 14.1, 13.77, 14.31, 14.61, 14.61, 14.9, 14.9, 15.34, 15.34, 15.74, 15.68, 16.05, 16.05, 16.05, 15.91, 15.05, 13.28, 11.96, 11.53, 12.3, 13.18, 12.96, 12.53, 10.52, 10.05, 9.28, 8.46, 8.01, 7.15, 6.26, 6.2, 5.16, 4.11, 3.43, 5.37, 5.37, 6.08, 6.44, 5.69, 6.13, 6.8, 7.74, 8.24, 7.85, 9.74, 10.73, 11.59, 13.83, 15.2, 15.62, 15.17, 15.2, 14.66, 13.88, 13.96, 13.34, 12.86, 5.8, -9.8, -4.66, 9.17, 10.41, 8.38, 7.6, 7.6, 9.39, 8.05, 5.06, 6.32, 6.63, 6.63, 13.33, 13.33, 13.33, 13.33, 13.77, 13.77, 14.22, 13.96, 14.4, 14.47, 14.9, 14.9, 14.9, 14.47, 14.23, 14.66, 14.75, 14.75, 14.75, 15.25, 15.25, 15.68, 15.38, 15.38, 15.04, 14.61, 14.61, 14.1, 14.1, 14.53, 14.61, 14.61, 14.25, 14.47, 14.47, 14.9, 15.34, 15.25, 15.61, 15.53, 15.53, 15.87, 15.46, 13.28, 11.96, 11.42, 11.86, 12.58, 12.96, 12.46, 11.18, 9.89, 9.58, 9.15, 8.38, 7.57, 7.15, 6.71, 5.77, 4.34, 4.52, 4.37, 6.9, 5.95, 6.32, 6.79, 6.52, 8.06, 8.17, 8.41, 8.82, 8.0, 11.11, 11.62, 12.49, 12.96, 13.86, 14.75, 16.5, 17.67, 16.22, 12.89, 11.18, 11.09, 11.06, 8.94, 9.3, 9.11, 7.15, 7.94, 7.52, 7.52, 8.49, 8.49, 7.6, 5.37, 6.79, 6.79, 12.88, 12.88, 13.33, 13.33, 13.77, 13.77, 14.22, 13.96, 14.4, 14.4, 14.9, 14.9, 14.9, 14.9, 14.51, 14.23, 14.66, 14.75, 14.75, 15.18, 15.25, 15.25, 15.68, 15.38, 15.04, 14.61, 14.61, 14.18, 14.1, 14.53, 14.53, 14.61, 14.18, 14.25, 14.47, 14.47, 14.47, 14.86, 15.18, 15.53, 15.53, 15.83, 15.14, 12.75, 10.05, 10.54, 11.31, 11.95, 12.3, 12.21, 11.61, 10.68, 9.83, 9.58, 8.67, 7.92, 7.57, 7.15, 5.81, 4.89, 4.6, 4.4, 7.06, 5.95, 6.32, 8.3, 7.21, 7.63, 8.38, 7.97, 7.97, 7.81, 10.2, 12.52, 13.83, 12.41, 12.85, 13.31, 15.82, 18.41, 17.15, 12.14, 10.6, 9.75, 9.7, 9.7, 9.83, 7.15, 8.05, 7.6, 7.6, 7.15, 7.15, 9.39, 8.94, 7.15, 5.06, 6.7, 12.88, 12.88, 13.33, 13.33, 13.77, 13.77, 14.22, 13.96, 14.4, 14.4, 14.9, 14.9, 14.9, 14.9, 14.95, 14.23, 14.23, 14.75, 14.75, 15.18, 15.25, 15.25, 15.25, 15.38, 14.95, 14.61, 14.18, 14.18, 14.1, 14.1, 14.53, 14.1, 14.18, 14.18, 14.25, 14.47, 14.03, 14.9, 14.81, 15.09, 14.99, 15.41, 14.47, 11.78, 9.62, 10.41, 10.96, 11.47, 12.15, 11.77, 11.68, 11.11, 10.18, 9.33, 8.67, 8.19, 7.48, 7.56, 6.26, 5.36, 4.77, 4.6, 7.06, 6.0, 6.4, 7.6, 7.6, 6.52, 7.63, 7.63, 7.21, 8.33, 9.39, 11.18, 15.65, 14.18, 12.09, 13.01, 15.23, 17.57, 15.93, 11.91, 10.91, 9.75, 9.21, 9.39, 9.39, 9.39, 10.73, 10.28, 8.49, 7.15, 7.15, 9.39, 9.39, 8.05, 6.71, 5.06, 12.88, 12.88, 12.88, 13.33, 13.77, 13.77, 14.22, 14.22, 14.4, 14.4, 14.9, 14.9, 14.9, 14.9, 14.95, 14.51, 14.23, 14.23, 14.75, 14.75, 15.18, 15.25, 15.25, 14.95, 14.95, 14.53, 14.18, 14.18, 13.67, 13.67, 14.1, 14.1, 14.1, 14.18, 13.75, 14.25, 14.03, 14.03, 14.86, 14.42, 15.09, 14.99, 13.99, 11.03, 9.96, 11.52, 12.81, 12.47, 12.18, 11.97, 11.6, 11.14, 10.18, 9.75, 8.4, 8.19, 7.45, 7.12, 6.26, 5.36, 4.89, 4.77, 5.02, 7.06, 7.06, 7.2, 6.52, 6.52, 6.9, 7.63, 7.94, 8.05, 9.39, 11.18, 13.41, 15.2, 13.28, 11.79, 12.63, 12.72, 12.53, 10.8, 10.02, 9.64, 9.46, 10.08, 10.41, 11.4, 11.46, 11.46, 10.18, 7.97, 7.6, 9.39, 8.94, 8.05, 6.26, 6.71, 12.88, 12.88, 12.88, 13.33, 13.33, 13.77, 13.77, 14.22, 14.22, 14.66, 14.4, 14.47, 14.9, 14.9, 14.47, 14.51, 14.51, 14.23, 14.31, 14.75, 14.75, 14.81, 14.81, 14.95, 14.95, 14.95, 14.1, 13.67, 13.67, 13.67, 13.67, 14.1, 14.1, 14.1, 13.75, 13.75, 13.82, 13.39, 13.75, 14.1, 13.86, 14.11, 13.28, 10.94, 9.81, 11.41, 13.41, 13.02, 11.52, 11.29, 12.17, 11.55, 10.01, 9.33, 8.4, 8.14, 7.45, 7.12, 6.67, 5.81, 4.92, 4.77, 6.64, 6.64, 6.08, 6.08, 6.52, 7.07, 6.52, 7.63, 7.97, 8.05, 8.82, 9.83, 11.18, 13.34, 16.09, 15.68, 10.73, 9.42, 9.45, 10.0, 9.74, 10.32, 10.79, 10.68, 10.4, 9.97, 11.03, 11.03, 10.18, 9.29, 8.41, 9.7, 9.39, 8.05, 6.71, 6.71, 12.44, 12.44, 12.88, 12.88, 13.33, 13.33, 13.77, 14.22, 14.22, 14.22, 14.4, 14.47, 14.47, 14.47, 14.47, 14.51, 14.51, 14.23, 14.23, 14.31, 14.75, 14.81, 14.81, 14.53, 14.53, 14.53, 14.1, 13.67, 13.67, 13.25, 13.25, 13.25, 13.67, 13.67, 13.67, 13.32, 13.32, 12.96, 13.32, 13.67, 13.57, 13.44, 12.87, 11.39, 10.28, 11.99, 13.52, 13.84, 12.42, 11.28, 10.73, 10.6, 9.08, 8.67, 8.48, 7.98, 7.89, 7.42, 7.11, 6.26, 5.36, 4.88, 4.6, 7.06, 6.08, 6.08, 6.44, 6.7, 6.64, 7.94, 8.49, 8.41, 9.26, 8.29, 10.65, 12.07, 13.86, 17.88, 15.58, 11.45, 9.3, 9.52, 10.18, 10.56, 10.73, 10.8, 9.7, 10.0, 10.0, 10.6, 10.6, 9.7, 9.7, 9.7, 8.49, 8.49, 8.49, 8.49, 12.44, 12.44, 12.88, 12.88, 13.33, 13.33, 13.77, 13.77, 13.77, 14.22, 13.96, 14.47, 14.47, 14.47, 14.47, 14.47, 14.51, 14.23, 14.23, 14.31, 14.75, 14.75, 14.81, 14.53, 14.53, 14.53, 14.1, 13.67, 13.25, 13.25, 12.82, 12.82, 12.82, 13.25, 13.67, 12.89, 12.89, 12.89, 12.89, 12.82, 13.15, 13.02, 12.21, 10.99, 10.55, 11.75, 13.65, 13.99, 13.19, 11.72, 10.8, 10.21, 8.82, 8.55, 8.14, 8.4, 7.71, 7.42, 7.55, 6.71, 5.81, 5.32, 4.52, 6.08, 6.08, 6.08, 6.44, 7.2, 6.64, 7.5, 8.05, 8.43, 8.73, 9.21, 9.68, 10.6, 12.52, 14.19, 15.95, 16.09, 15.57, 14.84, 13.89, 12.11, 10.79, 10.24, 10.0, 9.86, 10.32, 11.06, 11.02, 10.14, 10.28, 9.39, 8.94, 8.94, 8.94, 8.94, 12.44, 12.44, 12.88, 12.88, 13.33, 13.33, 13.77, 13.77, 14.22, 14.22, 13.96, 14.47, 14.47, 14.47, 14.47, 14.47, 14.51, 14.51, 14.23, 14.31, 14.75, 14.75, 14.53, 14.53, 14.53, 14.53, 14.1, 13.67, 13.25, 12.82, 12.82, 12.82, 12.82, 12.82, 12.82, 12.82, 12.46, 12.89, 12.89, 12.89, 12.72, 12.21, 11.8, 10.58, 10.15, 11.09, 12.72, 12.96, 13.07, 11.88, 10.96, 10.08, 8.77, 8.56, 8.19, 7.89, 7.71, 7.89, 7.55, 7.15, 6.71, 5.32, 5.02, 4.66, 6.44, 6.44, 7.2, 6.79, 7.21, 7.6, 8.94, 8.17, 8.73, 9.21, 9.68, 9.8, 11.18, 12.94, 13.75, 15.07, 17.7, 19.61, 20.56, 17.89, 12.98, 11.72, 10.88, 10.75, 10.65, 10.62, 11.62, 9.39, 9.83, 9.83, 9.39, 8.49, 8.49, 8.49, 12.44, 12.44, 12.88, 12.88, 12.88, 13.33, 13.33, 13.77, 14.22, 14.22, 14.22, 13.96, 14.47, 14.47, 14.47, 14.47, 14.51, 14.23, 14.23, 14.23, 14.31, 14.75, 14.42, 14.53, 14.53, 14.53, 14.1, 13.67, 13.25, 13.25, 12.82, 12.39, 12.39, 12.39, 12.39, 12.39, 12.39, 12.46, 12.89, 12.46, 12.39, 11.97, 11.8, 10.58, 10.32, 10.96, 11.92, 12.21, 12.39, 11.71, 11.02, 9.68, 8.9, 8.46, 7.89, 7.71, 7.71, 7.85, 7.55, 7.6, 7.1, 5.77, 5.2, 4.93, 5.05, 7.89, 7.89, 7.06, 7.6, 8.05, 7.97, 8.43, 8.87, 9.34, 9.35, 9.39, 10.28, 11.62, 12.49, 12.41, 14.47, 18.17, 20.56, 18.33, 16.01, 13.88, 12.14, 11.28, 11.06, 11.4, 10.28, 8.82, 9.26, 9.26, 9.26, 8.77, 8.77, 8.77, 12.44, 12.44, 12.88, 12.88, 13.31, 13.31, 13.33, 13.77, 13.77, 14.22, 14.22, 13.96, 14.47, 14.47, 14.47, 14.47, 14.47, 14.23, 14.23, 14.23, 14.31, 14.75, 14.42, 14.42, 14.53, 14.53, 14.1, 13.67, 13.25, 13.25, 12.82, 12.39, 12.3, 11.87, 11.96, 11.96, 11.96, 11.96, 12.46, 12.46, 12.1, 11.97, 11.8, 10.99, 10.32, 10.96, 11.5, 11.68, 11.55, 11.03, 10.41, 9.7, 8.91, 8.46, 8.01, 8.01, 8.0, 7.55, 8.05, 7.6, 7.15, 6.21, 5.32, 5.16, 4.93, 8.33, 7.6, 8.05, 8.49, 8.05, 8.49, 8.49, 8.49, 8.94, 9.39, 9.83, 10.28, 11.18, 11.59, 11.51, 12.41, 15.53, 20.12, 19.22, 17.37, 15.34, 13.09, 11.28, 10.75, 9.89, 8.6, 8.6, 9.03, 8.91, 9.33, 9.13, 9.13, 9.13, 12.44, 12.44, 12.88, 12.86, 12.86, 13.31, 13.77, 13.77, 13.77, 13.77, 14.22, 13.96, 13.96, 14.47, 14.47, 14.47, 14.47, 14.23, 14.23, 13.8, 13.8, 13.99, 14.42, 14.42, 14.42, 14.53, 14.1, 13.67, 13.25, 13.25, 12.82, 12.82, 12.3, 11.87, 11.55, 11.27, 11.27, 11.96, 12.04, 12.04, 11.68, 11.68, 11.55, 10.99, 10.0, 10.96, 11.36, 11.36, 11.14, 10.17, 10.08, 9.97, 9.26, 8.91, 8.01, 7.6, 7.6, 7.6, 7.6, 7.6, 7.6, 6.71, 5.36, 4.87, 4.66, 7.81, 7.37, 7.6, 8.05, 8.05, 8.94, 8.49, 8.94, 9.39, 9.39, 9.79, 9.83, 10.28, 10.73, 11.14, 12.04, 13.38, 17.4, 19.67, 19.44, 15.96, 12.25, 9.6, 9.32, 8.15, 9.04, 9.03, 9.03, 8.4, 8.4, 8.72, 8.72, 8.72, 12.44, 12.44, 12.86, 12.86, 12.86, 13.31, 13.77, 13.77, 13.77, 14.22, 14.22, 13.96, 14.4, 14.47, 14.47, 14.47, 14.13, 14.23, 14.23, 14.23, 14.23, 13.99, 14.42, 14.42, 14.42, 13.99, 14.1, 13.67, 13.25, 12.82, 12.82, 12.82, 12.3, 11.55, 11.55, 11.14, 11.27, 11.27, 11.27, 11.79, 11.79, 11.68, 11.55, 10.99, 10.2, 11.2, 11.77, 11.36, 10.73, 9.77, 9.36, 9.24, 9.54, 9.28, 8.46, 8.02, 7.6, 7.15, 7.15, 7.6, 7.6, 6.71, 5.36, 4.92, 4.85, 6.58, 6.23, 7.06, 7.6, 8.41, 8.87, 9.11, 9.39, 9.39, 9.33, 9.33, 9.39, 9.83, 10.28, 10.73, 11.62, 12.07, 12.94, 17.43, 19.03, 16.28, 7.15, 6.44, 6.6, 6.99, 7.07, 7.6, 8.06, 7.63, 7.47, 6.9, 6.9, 6.9, 12.42, 12.42, 12.86, 12.86, 12.86, 13.31, 13.77, 13.77, 13.77, 14.22, 14.22, 13.96, 14.4, 14.4, 14.47, 14.47, 14.13, 14.13, 14.23, 14.23, 14.23, 14.23, 14.42, 14.42, 13.99, 13.99, 13.99, 13.67, 13.25, 13.25, 12.82, 12.72, 11.97, 11.55, 11.55, 11.14, 11.14, 11.27, 11.27, 11.27, 11.37, 11.27, 11.14, 10.99, 10.6, 11.2, 11.6, 11.2, 10.2, 9.77, 9.2, 8.95, 9.24, 8.71, 8.39, 8.02, 8.02, 7.57, 7.12, 7.12, 7.11, 6.22, 5.32, 5.36, 4.92, 6.26, 6.14, 6.61, 7.15, 7.97, 7.81, 8.22, 8.63, 9.76, 9.39, 9.39, 9.39, 9.39, 9.39, 10.28, 11.18, 11.18, 11.62, 12.96, 17.83, 11.68, 6.95, 4.54, 4.98, 4.98, 5.81, 6.23, 6.14, 6.58, 6.23, 6.23, 6.23, 6.23, 12.42, 12.42, 12.42, 12.86, 12.86, 12.86, 13.33, 13.77, 13.77, 14.22, 14.22, 14.4, 14.4, 14.4, 14.47, 14.47, 14.13, 14.13, 14.23, 14.23, 14.23, 14.23, 13.99, 13.99, 13.99, 13.99, 13.99, 13.57, 13.25, 13.25, 12.82, 12.38, 11.97, 11.97, 11.55, 11.14, 11.14, 10.73, 10.85, 10.85, 11.37, 11.27, 11.14, 10.58, 10.6, 10.99, 11.6, 11.2, 10.6, 9.81, 8.82, 8.8, 8.95, 8.48, 8.24, 7.94, 7.94, 7.48, 7.57, 6.67, 6.58, 5.67, 5.32, 5.31, 5.31, 5.36, 6.71, 6.14, 6.71, 7.15, 7.21, 7.81, 8.15, 8.54, 9.76, 9.33, 9.39, 8.94, 9.39, 9.83, 10.73, 10.73, 11.18, 12.07, 17.78, 11.7, 0.0, 8.05, 4.47, 4.92, 5.81, 7.6, 6.26, 4.92, 5.81, 6.79, 6.79, 6.79, 12.42, 12.42, 12.42, 12.86, 12.86, 12.86, 13.33, 13.77, 13.77, 14.22, 14.22, 14.4, 14.4, 14.4, 14.47, 14.47, 14.13, 14.13, 14.13, 14.23, 14.23, 14.23, 13.86, 13.99, 13.99, 13.99, 13.57, 13.57, 13.15, 12.38, 12.38, 11.97, 11.97, 11.97, 11.55, 11.14, 11.14, 10.73, 10.85, 10.85, 10.85, 10.85, 10.73, 10.58, 10.2, 10.2, 10.18, 10.43, 10.18, 9.58, 9.2, 8.82, 8.8, 8.82, 8.48, 8.06, 7.81, 7.81, 7.48, 7.04, 6.14, 5.7, 5.67, 5.64, 5.75, 5.75, 6.71, 6.26, 6.61, 7.06, 7.6, 7.4, 7.37, 6.87, 9.04, 9.11, 9.33, 8.94, 9.35, 9.8, 10.25, 10.25, 11.14, 17.83, 18.96, -16.99, -11.45, -9.39, 5.81, 4.47, 4.92, 6.4, 6.0, 3.79, 5.37, 7.6, 7.6, 7.6, 12.42, 12.42, 12.42, 12.42, 12.86, 12.86, 13.31, 13.31, 13.77, 13.77, 13.96, 13.96, 14.4, 14.4, 14.4, 14.47, 14.13, 14.13, 14.13, 14.66, 14.23, 14.23, 13.86, 13.86, 13.99, 13.57, 13.57, 13.2, 12.79, 12.38, 12.38, 11.97, 11.97, 11.55, 11.55, 11.14, 11.14, 10.73, 10.73, 10.43, 10.85, 10.85, 10.85, 10.73, 10.17, 9.81, 9.81, 9.81, 9.81, 9.58, 9.2, 8.55, 8.8, 8.8, 8.82, 8.4, 7.98, 7.98, 7.56, 7.33, 6.47, 5.99, 6.14, 6.11, 6.07, 6.07, 5.77, 5.81, 7.08, 7.08, 7.6, 8.43, 8.17, 7.2, 6.32, 7.76, 8.37, 8.73, 8.99, 9.49, 9.49, 10.14, 11.95, 17.23, 17.85, -16.54, -10.84, -8.05, -4.92, 4.02, 4.92, 5.06, 3.4, -0.0, -0.0, -0.0, -0.0, -0.0, 12.42, 12.42, 12.42, 12.42, 12.42, 12.86, 13.31, 13.75, 13.75, 13.77, 13.53, 13.96, 14.4, 14.4, 14.4, 14.13, 14.13, 14.13, 14.13, 14.56, 14.66, 13.86, 13.86, 13.86, 13.57, 13.57, 13.2, 12.79, 12.79, 12.38, 12.38, 11.97, 11.97, 11.55, 11.55, 11.14, 11.14, 10.73, 10.73, 10.43, 10.43, 10.85, 10.85, 10.32, 10.17, 9.2, 9.05, 9.05, 9.05, 8.79, 8.93, 8.55, 8.6, 8.8, 9.13, 8.82, 8.4, 8.4, 7.98, 7.14, 6.72, 6.47, 5.99, 5.94, 6.36, 6.51, 6.51, 5.77, 7.15, 7.15, 8.05, 8.49, 8.94, 8.94, 8.6, 7.81, 6.55, 8.17, 8.72, 9.13, 8.72, 9.24, 11.05, 14.99, 14.3, -14.84, -8.24, -6.71, -5.81, -4.92, 6.26, -0.0, -0.0, -0.0, -0.0, -0.0, -0.0, -0.0, 12.42, 12.42, 12.42, 12.42, 12.42, 12.42, 12.86, 13.31, 13.31, 13.33, 13.53, 13.96, 13.96, 14.4, 14.4, 13.99, 14.13, 14.13, 14.13, 14.56, 14.11, 14.28, 14.28, 13.86, 13.02, 13.2, 13.2, 12.79, 12.79, 12.38, 11.97, 11.97, 11.55, 11.55, 11.55, 10.99, 11.14, 10.73, 10.32, 10.32, 10.43, 10.43, 10.43, 10.32, 9.77, 9.2, 9.2, 9.05, 8.67, 8.42, 8.55, 8.55, 8.99, 8.6, 9.13, 8.72, 8.72, 8.0, 7.6, 7.2, 7.47, 6.64, 6.23, 6.23, 6.13, 6.36, 6.28, 6.51, 6.26, 7.6, 7.6, 8.05, 8.49, 8.94, 8.87, 8.67, 7.76, 7.58, 8.21, 8.4, 8.4, 9.24, 9.97, 12.31, 9.39, -14.75, -7.45, -6.26, -6.26, -5.36, -7.15, 8.49, 9.39, 9.39, 9.39, 9.39, 9.39, 9.39, 12.42, 12.42, 12.42, 12.42, 12.86, 12.86, 12.86, 12.86, 13.31, 13.01, 13.53, 13.96, 13.96, 14.4, 13.99, 13.99, 14.13, 14.13, 14.13, 13.7, 14.11, 14.28, 14.28, 13.43, 13.02, 13.02, 13.2, 12.79, 12.38, 12.38, 11.97, 11.55, 11.55, 11.39, 10.99, 10.99, 10.99, 10.73, 10.73, 10.32, 10.32, 10.43, 10.43, 10.32, 9.77, 9.6, 9.2, 8.42, 8.42, 8.42, 8.55, 8.99, 8.99, 8.6, 8.99, 9.13, 8.72, 8.3, 8.0, 7.6, 7.2, 7.06, 6.64, 6.64, 6.54, 6.54, 6.79, 6.7, 6.51, 7.08, 7.52, 7.54, 7.98, 7.98, 8.24, 7.95, 7.6, 7.58, 7.82, 8.4, 8.72, 8.72, 9.49, 10.35, 10.12, -14.11, -9.83, -6.26, -6.26, -7.6, -8.94, -9.39, 9.39, 9.39, 9.39, 9.39, 9.39, 9.39, 12.42, 12.42, 12.42, 12.42, 12.86, 12.86, 12.86, 13.31, 13.31, 13.01, 13.53, 13.53, 13.96, 14.4, 13.99, 13.99, 13.99, 14.13, 14.13, 14.11, 14.11, 14.11, 14.28, 13.43, 13.02, 13.02, 12.62, 12.79, 12.38, 11.97, 11.97, 11.55, 11.39, 10.99, 10.99, 10.99, 10.58, 10.58, 10.73, 10.32, 10.32, 10.32, 10.43, 9.9, 9.77, 9.6, 9.2, 8.42, 8.42, 8.42, 8.55, 8.6, 8.99, 8.6, 8.99, 9.13, 8.72, 8.72, 8.0, 7.6, 7.2, 6.8, 6.64, 6.4, 6.25, 6.25, 6.54, 6.79, 6.7, 6.88, 7.08, 7.15, 7.15, 7.6, 7.81, 7.95, 7.2, 6.91, 7.82, 8.4, 8.72, 8.72, 9.24, 10.35, 11.88, -12.27, -12.52, -8.05, -6.26, -8.49, -9.39, -9.83, -9.39, -9.39, -9.39, -6.64, -6.64, -6.64, 12.42, 12.42, 12.42, 12.42, 12.86, 12.86, 12.86, 13.31, 13.01, 13.01, 13.44, 13.53, 13.96, 13.57, 13.99, 13.57, 13.57, 14.13, 13.7, 13.7, 14.11, 14.11, 13.84, 13.84, 13.02, 12.62, 12.62, 12.62, 12.21, 11.8, 11.8, 11.39, 11.39, 10.99, 10.99, 10.99, 10.99, 10.58, 10.58, 10.32, 10.32, 10.32, 9.9, 9.9, 9.77, 9.6, 9.2, 8.82, 8.42, 8.42, 8.55, 8.6, 8.6, 8.6, 8.99, 8.58, 8.72, 8.72, 8.72, 8.0, 7.6, 7.2, 6.8, 6.25, 6.25, 6.25, 6.25, 6.94, 6.94, 6.85, 6.14, 7.6, 7.15, 7.15, 7.6, 7.85, 8.06, 7.2, 7.58, 8.17, 8.72, 9.24, 9.66, 10.18, 12.39, -4.81, -13.67, -10.73, -8.49, -8.49, -9.39, -9.83, -9.83, -9.83, -9.39, -8.4, -8.4, -8.4, 12.39, 12.39, 12.39, 12.42, 12.42, 12.86, 12.86, 12.58, 13.01, 13.01, 13.44, 13.53, 13.96, 13.57, 13.57, 13.57, 13.57, 13.28, 13.7, 13.7, 13.7, 13.59, 13.59, 13.43, 13.02, 12.62, 12.62, 11.77, 11.77, 11.38, 11.38, 10.99, 10.99, 10.99, 10.99, 10.99, 10.99, 10.58, 10.58, 10.58, 10.32, 10.32, 10.32, 9.9, 9.77, 9.6, 8.99, 8.82, 8.82, 8.42, 8.18, 8.18, 8.6, 8.6, 8.99, 8.58, 8.72, 8.3, 8.82, 8.0, 8.0, 7.6, 7.2, 6.64, 6.64, 6.64, 6.64, 6.64, 7.03, 7.06, 6.42, 7.54, 6.71, 7.6, 7.15, 7.6, 8.29, 7.2, 7.2, 7.81, 8.4, 9.36, 9.36, 10.18, 12.04, 6.8, -13.28, -11.46, -10.14, -9.7, -9.39, -9.39, -9.83, -8.91, -8.91, -6.32, -6.32, -6.32, 12.39, 12.39, 12.83, 12.83, 12.86, 12.86, 12.58, 12.58, 12.58, 13.01, 13.01, 13.44, 13.57, 13.57, 13.57, 13.57, 13.07, 13.07, 13.28, 13.7, 13.19, 13.19, 13.19, 13.19, 13.02, 12.17, 12.17, 11.77, 11.77, 11.38, 11.38, 10.99, 10.6, 10.99, 10.99, 10.58, 10.58, 10.58, 10.58, 10.17, 10.17, 10.32, 10.32, 9.9, 9.77, 9.6, 9.38, 8.55, 8.82, 8.82, 8.18, 8.18, 8.6, 8.6, 8.21, 8.58, 8.72, 8.3, 8.4, 8.14, 8.0, 7.6, 7.6, 7.2, 6.64, 6.32, 6.32, 6.7, 6.7, 6.64, 6.23, 5.57, 5.33, 7.6, 6.71, 7.54, 7.85, 7.76, 7.82, 7.81, 8.43, 9.36, 9.36, 9.77, 11.34, 11.9, -3.36, -10.35, -10.38, -9.13, -8.72, -9.13, -8.72, -8.0, -6.32, -4.96, -4.96, -4.96, 12.39, 12.39, 12.83, 12.83, 12.86, 12.86, 12.58, 12.58, 12.58, 13.01, 13.01, 13.44, 13.57, 13.57, 13.57, 13.57, 13.07, 13.07, 13.28, 13.7, 13.19, 13.19, 13.19, 13.19, 13.02, 12.17, 12.17, 11.77, 11.77, 11.38, 11.38, 10.99, 10.6, 10.99, 10.99, 10.58, 10.58, 10.58, 10.58, 10.17, 10.17, 10.32, 10.32, 9.9, 9.77, 9.6, 9.38, 8.55, 8.82, 8.82, 8.18, 8.18, 8.6, 8.6, 8.21, 8.58, 8.72, 8.3, 8.4, 8.14, 8.0, 7.6, 7.6, 7.2, 6.64, 6.32, 6.32, 6.7, 6.7, 6.64, 6.23, 5.57, 5.33, 7.6, 6.71, 7.54, 8.06, 7.76, 7.82, 7.81, 8.43, 9.03, 9.42, 9.77, 10.17, 11.85, 4.98, -7.51, -9.97, -9.58, -9.55, -8.05, -8.05, -7.51, -6.64, -6.64, -6.64, -6.64]}, {"header": {"dx": 0.06612293990616946, "dy": 0.0552356325346848, "nx": 98, "ny": 59, "la1": 35.046912555036876, "la2": 31.78801023549047, "lo1": -121.43107172385933, "lo2": -114.95102361305473, "refTime": "2026040919", "parameterCategory": 1, "parameterNumber": 3}, "data": [-2.89, -2.89, -2.89, -2.89, -2.89, -2.89, -2.89, -2.89, -4.66, -4.66, -2.28, -1.64, -1.77, -1.58, -1.45, 0.0, 0.0, 0.0, 0.0, 0.0, 0.0, 0.0, 0.0, -1.47, -2.99, -3.97, -5.6, -6.26, -5.21, -5.01, -5.36, -5.01, -5.37, -6.23, -6.61, -6.26, -7.15, -7.06, -7.45, -7.2, -6.01, -5.06, -5.98, -7.19, -6.4, -6.56, -7.37, -7.4, -5.39, -3.62, -2.13, -0.97, 0.0, 0.0, 0.86, 1.58, 1.64, 2.44, 2.53, 3.32, 3.32, 3.32, 3.42, 3.29, 3.42, 3.42, 3.32, 3.32, 3.32, 3.44, 3.68, 2.93, 2.82, 2.71, 2.71, 2.59, 3.08, 2.28, 1.43, 0.0, 0.0, -1.73, -4.11, -5.2, -6.26, 0.0, 0.0, 0.0, 0.0, 0.0, 0.0, 1.58, 5.0, 6.7, 9.62, 10.19, 8.73, 8.37, -2.81, -2.89, -2.89, -2.89, -2.89, -2.89, -2.98, -2.98, -5.48, -5.48, -2.63, -2.54, -1.91, -2.6, -1.91, -1.84, 0.0, 0.0, 0.0, 0.0, 0.0, 0.0, 0.0, 0.0, -2.49, -4.74, -6.36, -6.71, -6.71, -6.0, -6.23, -5.81, -5.51, -5.51, -6.17, -7.15, -8.05, -8.05, -8.38, -8.48, -8.43, -8.22, -8.1, -8.2, -8.33, -7.49, -7.06, -5.52, -2.79, -1.11, -0.97, 0.0, 0.0, 0.0, 0.76, 1.64, 2.44, 2.53, 3.32, 3.32, 3.32, 3.32, 3.19, 3.19, 3.19, 3.32, 3.32, 3.32, 3.32, 3.44, 3.56, 3.68, 2.61, 2.71, 2.6, 2.49, 1.84, 2.28, 1.43, 0.0, 0.0, -1.73, -4.11, -5.2, -6.26, 0.0, 0.0, 0.0, 0.0, 0.0, 0.0, 1.58, 5.0, 6.7, 9.62, 10.19, 8.73, 8.37, -2.35, -2.43, -2.89, -2.89, -2.89, -2.89, -2.98, -5.64, -5.64, -5.31, -4.65, -3.25, -3.68, -4.58, -3.77, -2.95, -2.71, -1.39, -1.58, 0.0, 0.0, 0.0, 0.0, 0.0, 0.0, -3.2, -6.0, -6.51, -6.51, -7.15, -7.6, -7.15, -7.15, -7.6, -6.71, -8.49, -8.05, -8.94, -9.29, -9.97, -10.4, -10.94, -10.69, -11.17, -9.91, -7.74, -4.88, -3.01, -1.11, 0.0, 0.0, 0.0, 0.82, 1.7, 2.25, 2.44, 2.53, 3.32, 3.23, 3.23, 3.23, 3.32, 3.32, 3.32, 3.32, 3.32, 3.23, 3.23, 3.23, 3.23, 3.34, 2.72, 1.9, 1.7, 1.63, 1.63, 0.82, 1.21, 0.0, 0.0, 0.0, -1.32, -2.82, -4.74, -5.81, -5.06, -2.54, -1.67, -1.47, 0.0, 0.0, 2.13, 4.65, 7.54, 10.04, 8.73, 7.64, 7.21, -2.35, -2.35, -2.43, -2.89, -2.89, -2.89, -2.98, -5.64, -5.48, -5.15, -4.48, -3.98, -3.82, -4.4, -4.4, -5.54, -4.08, -4.24, -2.93, -1.39, 0.0, 0.0, 0.0, 0.0, 0.0, 0.0, -5.06, -6.64, -7.01, -7.06, -7.89, -8.0, -7.15, -4.96, -7.44, -9.11, -9.64, -10.96, -11.35, -12.25, -13.8, -14.66, -12.77, -10.51, -7.8, -5.65, -2.72, -0.93, 0.0, 0.0, 0.76, 1.64, 1.64, 2.44, 2.53, 2.53, 2.45, 2.45, 2.45, 2.45, 2.45, 2.45, 3.32, 3.32, 3.32, 3.44, 3.23, 3.73, 3.53, 2.97, 2.55, 1.95, 1.05, 0.0, 0.0, 0.0, 0.0, 0.0, 0.0, 0.0, 0.0, -1.01, -1.18, -2.8, -4.46, -4.96, -4.0, -3.15, -1.47, 0.0, 0.0, 3.14, 8.53, 9.58, 7.81, 7.56, 7.21, 6.87, -2.35, -2.35, -2.43, -2.43, -2.89, -5.48, -5.64, -5.64, -5.48, -7.13, -6.21, -5.52, -3.68, -3.07, -4.23, -5.77, -6.16, -5.4, -4.24, -4.24, -2.06, -2.1, -2.1, -2.28, -1.52, 0.0, -2.39, -6.64, -9.11, -8.06, -8.3, -6.95, -5.2, -1.91, 0.0, -2.71, -6.2, -10.79, -15.27, -17.02, -15.99, -12.33, -9.12, -6.51, -4.1, -3.47, -2.08, -1.01, 0.0, 0.0, 0.0, 0.83, 0.83, 1.71, 1.6, 1.65, 1.65, 1.65, 1.65, 1.65, 1.6, 2.53, 3.32, 3.32, 3.44, 3.44, 3.23, 3.23, 3.46, 3.36, 2.72, 2.07, 1.07, 0.0, 0.0, -0.78, -0.82, 0.0, 0.0, -1.38, -0.79, -1.73, -1.84, -3.68, -4.56, -3.15, -2.83, -1.47, 0.0, 0.0, 3.25, 8.53, 9.96, 8.6, 8.15, 7.21, 5.72, 6.32, -2.35, -2.35, -4.52, -4.66, -4.66, -5.48, -5.64, -5.48, -7.59, -7.13, -7.24, -5.29, -4.15, -3.39, -4.4, -3.92, -5.77, -5.99, -6.4, -6.63, -4.39, -4.75, -2.63, 0.0, 0.0, 0.0, 0.0, -2.71, -3.39, -7.59, -8.4, -6.64, -4.4, -1.98, 0.0, 0.0, 0.0, 0.0, -17.43, -18.78, -14.39, -4.52, -2.06, -1.77, 0.0, 0.0, 0.0, 0.0, 0.0, 0.0, 0.0, 0.0, 0.0, 0.0, 0.0, 0.0, 0.8, 0.8, 1.65, 1.65, 1.64, 2.44, 2.44, 3.32, 3.44, 2.45, 2.62, 2.53, 2.54, 3.36, 2.64, 2.81, 3.28, 1.27, 0.0, 0.0, -0.89, 0.0, 0.0, -1.5, -1.96, -2.82, -2.82, -3.4, -5.03, -3.8, -2.97, 0.0, 2.35, 7.13, 8.85, 11.2, 9.03, 7.81, 7.21, 6.01, 4.96, 6.42, -2.35, -4.52, -4.52, -4.66, -4.66, -5.48, -5.48, -5.48, -7.36, -8.66, -8.53, -5.06, -5.52, -4.23, -3.82, -3.92, -5.4, -5.6, -6.63, -6.08, -6.3, -4.52, -1.63, 0.0, 0.0, 0.0, 0.0, 3.47, 5.8, 3.98, 0.0, -4.2, -3.65, -1.62, 0.0, 0.0, 0.0, 0.0, 0.0, 3.25, 12.79, 12.3, 11.16, 9.48, 8.85, 6.43, 5.6, 3.68, 1.28, 0.0, 0.0, 0.0, 0.0, 0.0, 0.0, 0.0, 0.83, 0.83, 0.83, 1.71, 1.77, 2.51, 2.44, 2.53, 2.53, 2.45, 2.62, 1.71, 1.77, 2.63, 2.72, 3.57, 2.72, 2.15, 1.37, 0.0, 0.0, 0.0, 0.0, 0.0, -2.09, -2.69, -2.97, -3.11, -5.52, -5.2, -3.96, 0.0, 2.35, 5.8, 9.62, 10.24, 6.99, 6.52, 4.96, 4.96, 5.46, 6.7, -2.28, -4.52, -4.52, -4.52, -4.66, -4.66, -5.48, -5.48, -7.36, -8.38, -7.9, -6.95, -6.17, -6.2, -7.82, -5.92, -5.86, -5.27, -6.3, -6.51, -5.45, -3.53, -2.4, 0.0, 0.0, 2.15, 2.57, 5.98, 7.59, 6.9, 4.48, 2.93, 6.94, 5.6, 5.0, 3.44, 0.0, 1.58, 9.67, 11.4, 12.96, 13.59, 14.94, 14.57, 12.57, 10.12, 6.97, 5.43, 4.72, 3.32, 2.33, 2.19, 1.05, 1.05, 0.0, 0.97, 0.89, 0.89, 0.89, 0.89, 0.89, 0.82, 0.8, 0.83, 1.64, 1.71, 1.77, 1.77, 1.77, 2.62, 2.72, 2.81, 1.83, 1.02, 1.17, 1.17, 0.0, 0.0, 0.0, 0.0, -1.73, -3.32, -3.11, -3.39, -3.82, -4.1, -3.96, -2.2, 1.83, 5.4, 7.15, 4.74, 5.37, 4.71, 3.35, 3.8, 5.46, 6.95, -2.28, -4.52, -4.52, -4.52, -4.66, -4.66, -4.66, -7.59, -7.36, -8.1, -9.08, -9.67, -10.37, -9.96, -8.85, -8.85, -8.44, -8.05, -7.11, -7.79, -6.0, -6.0, -4.38, -2.81, -1.29, 0.0, 0.0, 4.38, 4.95, 4.52, 5.15, 12.16, 14.11, 11.88, 9.62, 5.77, 2.19, 7.9, 10.08, 10.14, 12.79, 13.7, 13.7, 10.73, 9.08, 7.9, 7.73, 6.5, 5.29, 4.8, 4.08, 3.08, 2.08, 0.97, 0.0, 0.0, 0.0, 0.0, 0.0, 0.0, 0.0, 0.0, 0.0, 0.85, 2.6, 2.71, 2.71, 2.82, 1.76, 1.84, 1.77, 0.84, 0.0, 0.0, -0.95, -1.11, 0.0, 0.0, 0.0, 0.0, 0.0, -1.77, -3.11, -3.32, -3.82, -4.32, -3.82, -1.91, 0.0, 2.7, 3.55, 3.47, 3.33, 3.17, 2.33, 3.8, 6.14, 6.64, -2.28, -4.38, -4.52, -4.52, -4.66, -4.66, -6.6, -6.6, -8.94, -9.17, -9.62, -10.37, -8.53, -8.23, -9.02, -10.91, -10.86, -11.2, -10.43, -8.38, -9.17, -8.1, -8.66, -7.36, -4.52, -1.91, 0.0, 2.1, 5.48, 4.52, 7.59, 15.36, 15.34, 12.87, 8.53, 5.75, 4.83, 8.15, 9.75, 8.0, 9.6, 10.55, 9.09, 6.64, 6.01, 6.01, 5.36, 5.7, 5.35, 4.25, 2.59, 1.84, 0.89, 0.0, 0.0, -0.89, -1.77, -1.77, -1.77, -1.77, -0.93, 0.0, 3.25, 4.5, 4.56, 4.44, 3.68, 2.51, 0.89, 0.0, -0.89, -1.66, -2.49, -3.58, -3.93, -2.92, -2.08, -1.16, -1.2, 0.0, 0.0, 0.0, -3.68, -3.91, -4.83, -5.63, -4.6, -2.02, 0.0, 1.47, 1.84, 1.84, 1.1, 1.07, 2.33, 4.2, 6.42, 6.32, -2.28, -4.38, -4.52, -4.66, -4.66, -6.6, -6.6, -6.6, -7.93, -8.59, -9.17, -9.8, -8.66, -6.2, -5.31, -6.95, -9.09, -8.68, -5.49, -3.69, -7.08, -7.8, -5.96, -4.05, -2.43, 0.0, 0.0, 3.82, 6.67, 7.13, 6.67, 10.79, 10.8, 8.73, 7.9, 6.21, 7.26, 8.18, 7.2, 7.15, 6.32, 6.95, 6.69, 6.95, 7.33, 6.45, 5.53, 4.74, 3.63, 3.49, 2.59, 2.59, 0.89, 0.0, 0.0, -0.93, -1.91, -3.82, -4.12, -3.34, 3.07, 7.56, 7.2, 7.81, 6.48, 5.52, 3.82, 2.93, 0.0, -1.84, -3.44, -4.55, -5.73, -5.31, -5.81, -5.73, -4.81, -4.24, -1.55, 0.0, 0.0, 2.65, 0.0, -4.81, -6.32, -5.72, -6.01, -4.71, -2.39, 0.0, 0.0, 0.0, 0.0, 0.95, 1.14, 2.82, 4.4, 4.71, -3.81, -4.38, -4.52, -4.66, -4.66, -6.6, -6.6, -6.6, -7.93, -7.79, -8.73, -9.13, -9.22, -6.78, -4.24, -3.04, -0.83, 0.0, 0.0, 1.06, 0.97, 0.95, 0.98, 1.6, 1.48, 1.61, 3.04, 2.06, 2.83, 2.82, 3.15, 3.99, 4.87, 4.29, 5.95, 6.58, 7.27, 6.01, 6.32, 5.89, 5.89, 5.36, 6.11, 6.64, 7.67, 6.99, 6.63, 5.59, 4.6, 4.0, 3.45, 3.49, 3.49, 3.49, 2.7, 1.84, 1.14, -1.33, -5.6, 7.27, 8.94, 9.7, 9.66, 8.8, 8.12, 7.13, 6.24, 4.99, 1.01, -1.01, -3.42, -6.21, -7.01, -7.62, -7.19, -7.11, -6.43, -5.6, -3.96, 0.0, 0.0, 2.2, 2.45, -2.89, -7.59, -8.72, -8.3, -7.51, -5.36, -4.0, -1.49, 0.0, 0.0, 0.0, 0.0, 1.45, 2.7, 3.4, -3.81, -3.81, -3.93, -4.05, -4.05, -5.81, -5.81, -5.63, -7.1, -8.05, -8.31, -8.78, -8.46, -7.66, -5.81, -3.48, -1.5, 0.0, 0.68, 0.7, 1.4, 1.99, 1.9, 1.9, 1.71, 1.77, 2.34, 2.28, 2.17, 0.65, 0.0, 1.75, 3.6, 2.82, 3.72, 4.58, 5.43, 5.24, 5.24, 5.1, 4.96, 4.5, 5.46, 7.44, 7.6, 7.47, 7.47, 6.01, 6.01, 5.59, 4.56, 3.91, 4.12, 5.69, 7.33, 7.33, 6.64, 2.49, -11.62, 6.32, 11.14, 10.6, 9.97, 9.24, 9.36, 9.43, 8.93, 8.53, 7.36, 6.16, 2.71, -2.6, -7.27, -9.09, -10.04, -8.85, -9.17, -6.7, -5.6, 0.0, 0.0, 0.0, 2.45, 6.0, -3.04, -11.2, -10.52, -9.64, -7.87, -6.01, -4.71, -3.2, -1.49, -1.18, 0.0, 0.0, 1.14, 1.96, -3.81, -3.81, -3.81, -3.93, -4.05, -5.63, -5.63, -5.63, -7.1, -7.1, -7.58, -7.93, -8.46, -7.66, -7.2, -5.65, -3.49, -1.59, -0.78, 0.0, 0.0, 0.71, 1.4, 1.42, 2.11, 2.8, 2.56, 3.17, 2.63, 1.65, 0.0, 0.0, 1.2, 1.73, 3.55, 4.58, 4.29, 4.95, 4.26, 3.8, 3.45, 3.6, 6.17, 10.0, 9.64, 9.64, 7.63, 7.87, 7.59, 7.59, 6.95, 5.52, 10.73, 12.87, 11.62, 10.09, 6.64, 2.97, 0.0, 7.37, 11.05, 11.18, 11.09, 10.65, 9.49, 9.36, 8.88, 8.67, 9.09, 7.4, 7.59, 6.7, -3.53, -6.95, -8.18, -10.0, -7.59, -0.0, 0.0, 0.0, 0.0, 0.0, 0.0, 4.52, 4.65, 0.0, -12.58, -10.73, -8.94, -6.32, -7.81, -5.37, -4.29, -2.26, -2.17, 0.0, 0.0, 1.07, -3.81, -3.81, -3.81, -3.93, -3.93, -5.63, -5.63, -5.63, -6.4, -6.4, -7.58, -8.18, -7.59, -8.16, -7.63, -6.14, -4.67, -3.59, -1.68, -0.82, 0.0, 0.0, 0.78, 1.6, 2.28, 3.09, 3.73, 3.47, 3.52, 2.3, 0.0, -1.9, 0.0, 0.0, 2.82, 3.91, 5.03, 4.68, 4.0, 2.54, 1.75, 3.15, 7.59, 9.6, 8.67, 8.94, 8.67, 7.6, 7.15, 7.87, 6.17, 6.17, 8.8, 8.33, 6.94, 6.32, 3.4, 1.67, 3.06, 9.46, 9.39, 9.39, 8.85, 9.29, 9.46, 9.46, 9.04, 8.55, 6.95, 6.58, 6.3, 10.6, 1.44, -0.0, -0.0, -0.0, 3.25, 7.27, 10.28, 7.27, 0.0, -6.95, -6.64, 0.0, 0.0, 4.65, 0.0, -11.18, -9.11, -8.06, -8.18, -7.6, -5.72, -4.75, -3.6, 0.0, 0.0, 0.0, -3.81, -3.81, -3.81, -3.93, -3.93, -5.63, -5.63, -5.02, -6.4, -6.4, -5.99, -7.16, -7.59, -7.28, -6.56, -6.34, -4.93, -3.89, -2.65, -1.73, -0.8, 0.0, 0.0, 0.79, 2.34, 2.96, 2.83, 2.76, 2.68, 2.05, 0.0, -1.89, -2.11, 0.0, 0.0, 2.51, 3.4, 3.6, 2.69, 1.32, 1.96, 4.47, 6.44, 7.2, 7.81, 8.05, 8.24, 7.81, 7.2, 6.44, 6.79, 6.08, 6.44, 7.2, 6.32, 3.97, 3.4, 2.69, 5.46, 9.04, 8.67, 9.21, 8.24, 7.89, 7.45, 7.47, 6.6, 7.33, 6.14, 4.4, 1.67, -0.0, -0.0, 1.64, 6.71, 10.84, 12.07, 10.8, 8.22, 5.52, 2.02, -4.4, -8.94, -8.49, 0.0, 0.0, 4.6, 0.0, -8.49, -7.63, -7.81, -7.01, -6.52, -5.03, -3.52, -2.17, -1.05, -1.05, -3.81, -3.81, -3.93, -3.81, -3.81, -5.63, -5.02, -5.18, -5.02, -5.81, -5.99, -7.16, -6.8, -7.28, -7.0, -6.56, -4.95, -4.93, -2.79, -1.78, -0.83, -0.8, 0.0, 0.8, 2.28, 2.88, 2.08, 1.39, 1.39, 0.72, 0.0, -2.79, -4.42, -3.47, 0.0, 1.55, 2.67, 2.69, 2.99, 1.49, 4.29, 6.0, 7.89, 7.2, 8.72, 8.77, 8.67, 7.6, 7.07, 7.07, 7.44, 6.32, 6.32, 6.32, 4.0, 4.0, 3.32, 4.83, 6.64, 8.03, 8.23, 7.81, 7.07, 7.2, 6.7, 5.36, 5.37, 4.83, 3.32, 1.54, 0.0, -2.71, -0.0, 9.3, 11.51, 10.55, 9.42, 8.54, 7.51, 5.64, 4.8, 0.0, -8.94, -6.7, -6.01, -8.05, 2.69, 0.0, -3.8, -6.01, -9.39, -8.05, -7.45, -6.63, -6.42, -4.2, -2.58, -2.58, -3.81, -3.81, -3.93, -3.93, -3.81, -3.36, -5.02, -5.02, -5.18, -5.99, -5.99, -5.64, -6.8, -6.29, -6.29, -5.46, -5.26, -5.09, -4.01, -1.83, -0.85, -0.8, 0.0, 0.8, 1.56, 1.53, 0.0, 0.0, -0.75, -0.79, -1.58, -2.79, -5.65, -5.09, -1.13, 0.0, 0.89, 1.49, 1.49, 3.2, 6.8, 7.47, 7.2, 7.6, 8.3, 8.72, 7.15, 7.44, 7.44, 7.81, 7.81, 6.64, 5.21, 4.2, 4.0, 4.2, 3.49, 4.2, 5.9, 5.9, 5.9, 6.64, 4.96, 2.69, 3.8, 3.97, 1.52, 0.0, 0.0, -1.58, 0.0, 3.68, 9.27, 9.88, 9.69, 8.42, 7.78, 6.53, 6.21, 5.4, 4.54, 3.82, -6.32, -4.2, -6.64, -8.49, 0.0, 0.0, 0.0, 0.0, -6.95, -8.49, -7.6, -7.67, -6.17, -5.9, -4.83, -4.83, -3.36, -3.36, -3.36, -3.47, -3.36, -3.36, -5.02, -5.02, -4.66, -5.99, -5.99, -5.64, -7.0, -6.47, -6.29, -6.31, -5.67, -5.62, -3.28, -1.89, -1.64, -3.32, -3.58, -2.52, -2.31, -1.5, -2.72, -3.33, -4.23, -3.49, -3.78, -3.51, -4.7, -7.8, -4.95, -1.25, 0.0, 0.0, 0.0, 3.15, 4.47, 5.37, 6.7, 6.7, 6.79, 6.32, 6.32, 6.64, 7.81, 7.81, 7.81, 5.21, 5.21, 4.96, 4.0, 4.2, 4.2, 4.2, 4.4, 4.4, 4.4, 4.2, 4.0, 2.82, 1.95, 1.84, 1.4, 0.0, -0.89, 0.0, 2.4, 5.62, 8.12, 8.96, 8.16, 5.91, 4.0, 3.23, 2.81, 3.18, 3.11, 9.83, -0.0, -0.0, -0.0, -0.0, -0.0, 0.0, 0.0, 3.39, 0.0, -8.4, -8.94, -8.77, -6.95, -5.46, -7.27, -7.27, -3.36, -3.36, -3.36, -3.36, -3.36, -3.36, -5.02, -5.02, -4.66, -4.66, -5.48, -5.64, -5.35, -6.47, -6.47, -5.85, -5.67, -6.1, -4.95, -5.19, -5.71, -6.45, -7.57, -8.78, -7.84, -6.52, -5.94, -4.73, -4.67, -2.4, -1.24, 0.0, 0.0, -9.67, -7.6, -4.18, -1.61, -1.28, 0.0, 0.73, 1.49, 2.44, 2.54, 2.12, 2.4, 4.14, 5.1, 5.36, 6.64, 7.81, 7.81, 7.44, 6.32, 6.32, 5.03, 4.71, 3.65, 3.8, 2.83, 2.39, 2.28, 2.17, 2.06, 2.06, 1.49, 1.73, 1.4, 0.0, 0.0, 1.63, 4.1, 5.83, 6.52, 5.69, 3.18, 0.82, -0.79, -1.61, 0.0, 0.0, 1.45, 9.83, 2.17, -0.0, -0.0, -0.0, -0.0, -3.8, 0.0, 0.0, 2.39, 0.0, -11.62, -9.83, -6.64, -4.6, -7.27, -7.27, -3.36, -3.36, -3.36, -3.36, -3.36, -3.36, -4.87, -5.02, -4.66, -4.81, -5.48, -5.64, -5.35, -6.47, -6.47, -6.02, -5.67, -6.1, -6.21, -7.28, -7.6, -7.92, -9.49, -9.47, -9.19, -6.81, -3.9, -2.11, 0.0, 0.0, 1.19, 1.45, 0.0, 0.0, 0.0, 0.0, 0.0, -1.61, 0.0, 0.0, 0.0, 0.0, 0.0, 0.89, 1.55, 2.99, 4.37, 5.36, 6.32, 8.48, 8.06, 7.07, 6.7, 7.07, 6.01, 5.03, 4.21, 3.35, 0.0, 0.0, 0.0, 0.0, 0.0, 0.0, 0.0, 1.73, 1.4, 1.07, 1.75, 2.47, 4.17, 5.02, 4.21, 1.69, -0.8, -3.39, -5.73, -5.99, -3.96, -2.0, 0.0, 0.0, -0.0, -0.0, -0.0, -0.0, -0.0, -0.0, -0.0, 0.0, 0.0, 8.85, 12.52, 0.0, -9.39, -4.2, -4.2, -4.2, -1.72, -3.36, -3.36, -3.36, -3.36, -3.36, -4.87, -4.52, -4.66, -4.81, -5.64, -5.64, -5.19, -5.35, -6.47, -6.02, -5.85, -6.6, -6.99, -7.78, -5.96, -3.72, -4.23, -5.5, -6.1, -5.65, -3.03, -0.92, 0.0, 0.89, 1.83, 0.97, 0.0, 0.0, 0.0, 0.0, 0.0, 0.0, 0.0, 0.0, 0.0, 0.0, 0.0, 0.0, 0.71, 1.67, 2.69, 3.8, 7.07, 7.81, 7.37, 7.2, 6.7, 6.7, 5.69, 5.69, 5.15, 4.0, 1.54, -1.75, -2.99, -2.69, -1.4, -1.4, 0.0, 0.0, 0.0, 1.25, 2.09, 2.97, 5.7, 6.51, 5.81, 0.0, -5.59, -9.02, -10.99, -10.05, -7.92, -5.18, -1.11, 0.0, 2.28, 8.4, 9.39, 8.94, 8.48, 7.81, 4.0, -0.0, 0.0, 11.62, 11.62, 8.94, 0.0, -5.69, -6.32, -6.32, -1.72, -1.72, -3.36, -3.36, -3.36, -3.36, -3.1, -4.52, -4.66, -4.81, -4.37, -5.64, -5.35, -5.35, -4.95, -6.02, -5.85, -6.18, -6.37, -6.99, -5.07, -2.8, -1.89, -2.01, -2.34, -3.42, -2.22, -0.97, 0.0, 0.0, 0.0, 0.0, 0.0, 0.0, 0.0, 0.0, 0.0, 0.0, 0.0, 0.0, 0.0, 0.0, 0.0, 0.0, 0.0, 1.14, 2.54, 4.46, 7.21, 7.15, 7.37, 6.8, 6.8, 6.8, 6.8, 6.08, 5.06, 4.68, 3.32, 0.0, -4.14, -4.37, -2.69, -1.67, 0.0, 1.84, 1.63, 1.32, 1.32, 2.83, 5.9, 4.6, 14.3, -0.0, -0.0, -6.95, -14.03, -13.97, -11.88, -7.82, -2.72, 0.0, 2.46, 6.01, 8.15, 8.63, 9.03, 9.39, 10.08, 5.2, -0.0, 7.9, 10.28, 8.05, 0.0, -5.37, -5.69, -5.69, -1.72, -1.72, -1.72, -3.36, -3.36, -3.01, -3.01, -4.52, -4.66, -4.37, -4.37, -5.81, -5.35, -5.35, -4.95, -6.02, -6.02, -5.3, -6.56, -6.34, -5.23, -4.12, -2.8, -2.56, -1.78, -1.93, -2.04, -2.04, -0.97, -0.89, 0.0, 0.0, 0.0, -0.95, -1.15, 0.0, 0.0, 0.0, 0.0, 0.0, 0.0, 0.0, 0.0, 0.0, 0.0, 0.0, 1.67, 3.8, 6.8, 7.37, 7.47, 6.8, 7.45, 7.45, 6.4, 5.72, 5.24, 4.58, 4.37, 1.58, -2.49, -3.68, -4.29, -2.26, 3.0, 3.22, 3.6, 2.83, 1.75, 1.4, 0.0, 0.0, 0.0, 0.0, -0.0, -0.0, -2.83, -12.52, -13.57, -10.12, -3.56, 0.0, 2.28, 6.01, 7.28, 7.76, 8.63, 9.03, 9.26, 9.39, -0.0, -0.0, -0.0, 0.0, 0.0, -5.37, -5.69, -5.69, -1.72, -1.72, -1.72, -3.36, -3.36, -3.01, -3.01, -4.52, -4.66, -4.37, -4.37, -4.37, -5.35, -5.35, -4.95, -4.95, -5.62, -5.46, -5.46, -5.41, -5.09, -5.37, -5.07, -3.79, -2.57, -2.57, -1.88, -1.93, -1.93, -0.89, -0.89, -0.83, 0.0, -0.92, -1.07, -1.15, -1.15, 0.0, 0.0, 0.0, 0.0, 0.0, 0.0, 0.0, 0.0, 0.0, 0.0, 1.12, 2.32, 2.8, 3.72, 6.08, 7.01, 7.01, 7.06, 6.4, 6.4, 5.37, 4.56, 3.6, 1.95, 0.0, -1.63, 0.0, 5.81, 7.2, 6.32, 3.49, 1.47, -1.14, -1.75, -0.82, 0.0, 0.0, 0.0, 0.0, -4.24, -7.9, -8.94, -11.45, -6.0, 0.0, 5.75, 8.55, 7.07, 7.2, 7.6, 8.0, 8.0, 8.0, 8.94, -0.0, -0.0, -0.0, 0.0, -5.06, -5.06, -5.06, -1.72, -1.72, -1.72, -1.72, -3.01, -3.01, -3.01, -4.52, -4.66, -4.24, -4.37, -4.37, -5.35, -5.35, -4.95, -4.95, -4.6, -5.62, -5.62, -5.26, -5.26, -5.09, -5.37, -5.07, -3.79, -3.69, -2.65, -1.88, -1.93, -0.92, -0.89, -0.89, -0.87, -0.92, -2.13, -2.28, -1.23, -1.15, -1.11, -1.03, 0.0, 0.0, 0.0, 0.0, 0.0, 0.0, 0.0, 0.0, 0.56, 0.62, 1.41, 3.22, 6.8, 7.45, 7.63, 7.06, 6.94, 6.94, 6.4, 4.83, 3.15, 1.75, 0.0, 3.97, 6.58, 8.77, 6.64, 4.83, 0.0, -1.95, -2.69, -2.52, -0.83, 0.0, 0.92, 1.11, -1.94, -13.41, -7.63, -8.94, -9.17, 10.12, 12.45, 10.18, 7.31, 7.63, 7.6, 7.07, 7.44, 7.6, 8.48, 2.06, -0.0, -0.0, 0.0, 0.0, -7.15, -7.15, -1.72, -1.72, -1.72, -1.53, -3.01, -3.01, -3.01, -3.01, -4.52, -4.24, -4.37, -4.37, -4.12, -5.19, -4.95, -4.95, -4.6, -4.6, -5.62, -5.26, -5.26, -5.26, -5.09, -5.23, -4.93, -4.01, -3.69, -2.72, -2.79, -1.78, -1.78, -1.78, -0.85, -0.89, -1.93, -2.19, -2.52, -1.27, -1.18, -1.11, -0.99, -0.86, -0.76, 0.0, 0.0, 0.0, 0.0, 0.0, 0.0, 0.0, 0.0, 0.76, 3.45, 6.4, 6.57, 6.57, 7.45, 7.01, 6.0, 4.74, 3.15, 1.95, 1.84, 5.59, 8.77, 8.48, 6.64, 2.46, 0.0, 0.0, -1.75, -2.59, -1.7, 0.0, 0.86, 0.89, -1.37, -12.22, -7.44, -0.0, 7.59, 13.57, 14.19, 10.73, 8.05, 7.08, 7.2, 7.07, 7.6, 8.06, 8.24, 8.43, 4.46, -0.0, -0.0, 0.0, 0.0, 0.0, -1.72, -1.72, -1.53, -1.53, -3.01, -3.01, -3.01, -3.01, -3.1, -4.11, -4.24, -4.37, -4.0, -4.0, -4.81, -4.81, -4.95, -4.6, -4.6, -5.26, -5.26, -5.26, -4.95, -4.95, -5.09, -4.15, -3.9, -3.9, -3.05, -2.87, -2.72, -1.73, -1.78, -1.78, -1.88, -2.19, -2.34, -2.58, -2.4, -1.15, -2.09, -1.97, -0.86, -0.7, -0.68, -0.65, -1.45, -0.75, -0.69, -0.67, -0.57, 0.0, 0.76, 3.68, 6.4, 6.45, 7.01, 7.01, 6.57, 5.49, 3.55, 2.83, 4.46, 6.6, 8.22, 8.82, 4.44, 2.17, 0.0, 0.0, -0.85, -1.69, -2.6, -1.7, -1.64, -1.77, -2.43, -12.27, -5.36, -0.0, 5.31, 11.16, 14.23, 11.62, 9.39, 9.26, 6.8, 7.2, 8.17, 7.97, 7.74, 8.17, 8.05, 6.44, 3.6, 0.0, 0.0, 0.0, -1.53, -1.53, -1.53, -1.53, -3.01, -3.01, -3.01, -3.1, -3.1, -2.81, -4.24, -4.37, -4.12, -4.12, -4.95, -4.81, -4.81, -4.47, -4.47, -4.18, -4.3, -5.26, -5.26, -4.95, -4.95, -4.3, -4.3, -4.15, -4.26, -3.05, -2.87, -2.72, -1.73, -1.73, -1.83, -2.05, -3.47, -2.58, -2.4, -2.34, -2.21, -2.04, -1.77, -1.76, -0.81, -0.72, -2.25, -4.58, -4.87, -2.11, -1.4, -1.12, -0.54, 0.0, 4.02, 5.75, 6.94, 7.45, 6.57, 6.6, 5.06, 5.03, 6.32, 7.81, 8.15, 6.64, 5.46, 2.17, 0.0, -0.89, -1.76, -1.63, -2.51, -3.42, -4.21, -4.52, -3.12, -5.4, -6.64, -0.0, 2.12, 8.53, 12.27, 13.67, 9.39, 7.45, 5.94, 7.21, 7.63, 7.52, 7.74, 7.31, 6.99, 7.6, 7.21, 8.05, 0.0, 0.0, -1.53, -1.53, -1.53, -1.53, -1.53, -3.01, -3.01, -3.1, -3.1, -2.81, -2.81, -4.37, -4.0, -4.12, -4.23, -4.95, -4.81, -4.47, -4.47, -4.47, -4.3, -4.3, -4.3, -4.3, -4.3, -4.3, -4.18, -4.3, -3.16, -2.97, -2.8, -2.8, -2.65, -2.51, -2.72, -2.87, -3.24, -2.52, -2.4, -2.4, -2.28, -2.18, -2.81, -2.21, -1.32, -1.76, -3.18, -7.44, -9.48, -7.68, -5.75, -4.0, -1.14, -0.61, 0.0, 4.02, 6.13, 6.4, 6.99, 6.57, 6.0, 6.32, 6.6, 7.37, 6.52, 6.52, 5.44, 3.11, 0.0, -2.57, -3.36, -2.6, -2.44, -3.23, -4.98, -5.34, -3.92, -1.84, -3.07, -7.27, -0.0, 2.49, 5.8, 10.12, 12.71, 8.49, 8.49, 7.47, 6.23, 6.64, 7.06, 6.9, 7.07, 7.63, 8.38, 8.49, 0.0, 0.0, -1.48, -1.48, -1.53, -1.53, -1.53, -3.01, -3.01, -3.1, -3.1, -2.89, -2.89, -4.11, -4.0, -4.0, -4.12, -4.95, -4.95, -4.6, -4.6, -4.6, -4.3, -4.3, -4.3, -4.3, -4.3, -4.3, -4.18, -3.09, -3.18, -4.03, -3.9, -3.58, -3.39, -2.57, -2.65, -2.8, -3.24, -3.72, -2.52, -2.4, -2.34, -2.31, -2.92, -3.16, -2.63, -3.25, -4.43, -6.4, -11.9, -11.5, -8.22, -4.66, -2.64, -1.16, 0.0, 0.88, 3.68, 5.93, 6.32, 6.4, 5.58, 5.84, 6.52, 6.52, 6.01, 5.03, 3.4, 3.15, 0.0, -2.58, -3.63, -3.49, -1.7, -1.71, -4.4, -6.62, -6.43, -4.1, -2.45, -2.52, -7.9, -0.0, -0.0, 4.24, 6.0, 9.67, 12.07, 8.55, 6.01, 4.74, 6.32, 6.08, 5.93, 5.93, 8.0, 8.3, 6.32, 6.32, -1.48, -1.48, -1.48, -1.53, -1.53, -3.01, -3.01, -3.1, -3.1, -2.89, -2.89, -2.89, -4.24, -4.12, -4.12, -3.79, -4.95, -4.73, -4.73, -4.73, -4.73, -4.42, -4.3, -4.3, -4.3, -4.3, -4.47, -4.21, -4.23, -3.8, -4.67, -4.8, -4.54, -3.58, -3.39, -2.8, -3.16, -3.72, -3.72, -2.34, -2.34, -2.21, -3.12, -2.51, -3.46, -3.92, -3.87, -1.13, 0.0, -2.45, -2.02, -2.99, -1.98, -0.96, -0.81, 0.0, 0.88, 3.68, 4.75, 5.06, 4.43, 4.87, 5.44, 4.68, 4.71, 3.6, 2.4, 1.58, 0.0, 0.0, 0.0, 0.0, 0.0, 0.0, -1.93, -5.37, -7.21, -5.86, -4.93, -2.93, -3.68, -10.04, -1.71, -0.0, 2.13, 3.25, 12.39, 9.8, 2.71, 2.17, 2.54, 6.01, 5.37, 5.06, 7.07, 7.67, 7.07, 7.07, -1.48, -1.48, -1.48, -1.53, -1.53, -3.01, -3.01, -3.1, -3.1, -2.89, -2.89, -2.89, -4.24, -3.88, -4.12, -3.79, -3.79, -3.79, -4.6, -4.73, -4.73, -4.73, -4.42, -4.3, -4.18, -4.18, -4.47, -4.21, -4.97, -4.95, -4.96, -5.26, -5.09, -3.9, -3.69, -3.9, -3.16, -3.72, -3.72, -3.72, -2.34, -2.28, -2.02, -2.53, -2.76, -3.47, -2.97, -1.62, -0.92, 0.0, 0.0, 0.0, 0.0, 0.0, 0.0, 0.0, 0.0, 1.7, 3.47, 3.91, 3.72, 4.58, 6.01, 4.22, 4.46, 4.14, 2.82, 1.07, 0.0, 1.26, 1.75, 1.84, 0.0, -0.8, -0.87, -2.3, -3.41, -5.95, -5.9, -4.87, -3.32, -4.55, -13.41, -4.24, -0.0, -0.0, -0.0, 0.0, 0.0, 0.0, 0.0, 4.0, 7.6, 5.06, 4.74, 6.63, 6.44, 6.44, -1.48, -1.48, -1.48, -1.48, -1.53, -1.53, -3.01, -3.1, -3.1, -2.89, -2.89, -2.98, -4.24, -3.88, -4.0, -3.79, -3.79, -3.79, -3.52, -3.62, -4.73, -4.86, -4.42, -4.42, -4.18, -4.18, -4.47, -5.3, -4.96, -4.96, -4.05, -4.18, -4.3, -4.03, -4.15, -2.97, -3.16, -3.62, -4.01, -4.01, -3.72, -2.34, -2.15, -1.83, -2.28, -2.14, -3.04, -3.36, -2.55, -1.5, -0.65, -0.72, 0.0, 0.0, 0.0, 0.0, 0.0, 0.81, 2.0, 2.73, 5.06, 5.37, 5.37, 4.83, 4.47, 5.37, 3.91, 2.26, 1.67, 1.47, 2.69, 1.39, 0.0, -1.64, -1.63, 0.0, 0.0, -1.33, -3.96, -5.27, -3.98, -2.56, -3.47, -12.39, -3.36, -2.28, -4.52, -14.3, -2.93, 0.0, 0.0, 0.0, 0.0, 5.37, 3.97, 5.03, 5.69, 5.69, -1.48, -1.48, -1.48, -1.48, -1.53, -1.53, -3.01, -3.1, -3.2, -2.89, -2.98, -2.98, -2.98, -4.24, -3.88, -4.0, -3.69, -3.69, -3.69, -3.52, -3.62, -4.73, -4.73, -4.42, -4.3, -4.18, -4.18, -4.34, -5.3, -5.11, -4.18, -4.18, -2.98, -2.98, -3.07, -3.07, -3.37, -3.62, -4.01, -4.01, -4.01, -2.45, -2.15, -1.9, -1.6, -1.44, -2.31, -2.47, -3.46, -3.34, -2.1, -2.15, -1.43, -0.71, -0.8, 0.0, 0.0, 0.89, 1.47, 1.76, 2.86, 5.37, 5.37, 4.56, 4.83, 5.69, 3.68, 3.4, 2.21, 2.06, 1.75, 1.39, 0.0, -0.83, -0.86, 0.0, 0.98, 1.01, 0.0, -1.63, -3.47, -3.1, -1.33, -1.61, -11.6, -9.8, -13.99, -9.17, -2.6, -1.4, 0.0, 0.0, 0.0, 0.0, 5.06, 4.22, 5.31, 5.31, -1.48, -1.48, -1.48, -1.48, -1.53, -1.53, -1.58, -3.1, -3.2, -2.89, -2.98, -2.98, -2.98, -2.89, -3.88, -4.0, -3.69, -3.69, -3.69, -3.52, -3.52, -3.62, -4.73, -4.73, -4.3, -4.18, -4.18, -4.34, -4.34, -4.47, -4.18, -4.18, -3.8, -2.89, -2.89, -2.98, -3.07, -3.52, -3.9, -4.23, -4.23, -2.65, -2.38, -1.9, -1.6, -2.14, -2.22, -3.14, -3.46, -3.56, -3.19, -2.82, -2.21, -2.11, -1.4, -0.69, 0.0, 0.0, 0.72, 1.08, 1.94, 3.12, 4.14, 3.97, 4.22, 5.1, 3.91, 2.69, 2.33, 1.2, 1.47, 0.89, 1.23, 0.0, -0.83, 0.0, 0.0, 0.0, -1.1, -2.72, -3.24, -3.68, -3.19, -1.39, -1.58, -6.71, -6.2, -2.28, 0.0, -1.32, -1.07, -1.07, 0.0, 0.0, 0.0, 5.37, 5.1, 5.1, -1.43, -1.43, -1.48, -1.48, -1.53, -1.53, -1.58, -3.1, -3.2, -3.2, -2.98, -2.98, -2.98, -2.98, -2.64, -3.88, -4.0, -3.69, -3.69, -3.79, -3.52, -3.52, -3.62, -4.73, -4.3, -4.18, -4.18, -4.05, -4.34, -4.47, -4.47, -4.18, -4.05, -3.8, -2.89, -2.89, -2.89, -3.18, -3.79, -4.23, -4.23, -2.88, -1.38, -2.32, -2.15, -1.98, -2.66, -3.73, -4.1, -4.36, -3.32, -3.29, -3.02, -2.21, -2.17, -1.44, -0.69, 0.0, 0.0, 0.54, 1.73, 2.2, 2.82, 3.97, 4.22, 3.32, 2.4, 2.54, 1.4, 1.14, 1.14, 1.95, 1.28, 0.0, -0.92, -1.65, -1.71, -1.66, -2.97, -3.68, -3.12, -3.04, -3.53, -3.25, -1.62, -1.62, 0.0, 0.0, 0.0, 0.0, 0.0, 0.0, 0.0, 0.0, 0.0, 0.0, 5.06, 4.46, -1.43, -1.43, -1.48, -1.48, -1.53, -1.53, -1.58, -3.1, -3.2, -3.2, -2.98, -2.98, -2.98, -2.98, -2.72, -3.88, -3.88, -3.69, -3.69, -3.79, -3.52, -3.52, -3.52, -4.73, -4.6, -4.18, -4.05, -4.05, -4.34, -4.34, -4.47, -4.34, -4.05, -4.05, -3.8, -2.89, -2.81, -2.98, -3.42, -4.12, -4.5, -4.62, -2.89, -2.62, -2.06, -2.6, -3.87, -5.02, -5.67, -5.43, -4.49, -3.42, -3.39, -3.11, -2.17, -2.23, -1.36, -0.76, 0.0, 0.0, 1.19, 1.73, 2.82, 3.0, 3.2, 3.8, 3.8, 3.91, 2.54, 2.54, 2.4, 1.67, 0.0, 0.0, 0.0, -1.89, -3.23, -3.25, -3.58, -3.3, -2.28, -1.98, -2.42, -3.25, -1.84, 0.0, 0.0, 0.0, 0.0, 0.0, 0.0, 0.0, 0.0, 0.0, 0.0, 0.0, 0.0, 5.06, -1.43, -1.43, -1.43, -1.48, -1.53, -1.53, -1.58, -1.58, -3.2, -3.2, -2.98, -2.98, -2.98, -2.98, -2.72, -2.64, -3.88, -3.88, -3.69, -3.69, -3.79, -3.52, -3.52, -4.6, -4.6, -4.47, -4.05, -4.05, -4.21, -4.21, -4.34, -4.34, -4.34, -4.05, -3.93, -3.8, -2.81, -2.81, -3.18, -4.81, -4.12, -4.5, -4.66, -4.9, -3.98, -3.6, -5.28, -7.01, -7.5, -6.98, -5.8, -4.64, -3.39, -3.25, -3.06, -2.23, -1.49, -0.71, 0.0, 0.0, 0.54, 1.19, 1.88, 2.82, 2.82, 3.6, 3.91, 3.91, 4.14, 2.54, 1.32, 0.0, 0.0, 0.0, 0.0, 0.0, -1.9, -4.21, -4.51, -4.24, -3.34, -2.88, -2.31, -1.93, -2.7, -2.02, -2.6, -2.28, -1.91, -1.91, -1.45, -1.14, 0.0, 0.0, 0.0, 0.0, 0.0, 0.0, -1.43, -1.43, -1.43, -1.48, -1.48, -1.53, -1.53, -1.58, -1.58, -1.63, -3.2, -2.89, -2.98, -2.98, -2.89, -2.64, -2.64, -3.88, -3.58, -3.69, -3.69, -3.42, -3.42, -4.6, -4.6, -4.6, -4.34, -4.21, -4.21, -4.21, -4.21, -4.34, -4.34, -4.34, -3.93, -3.93, -3.69, -3.57, -3.93, -4.34, -5.04, -5.64, -5.31, -6.08, -6.24, -6.15, -7.15, -8.68, -9.22, -8.78, -6.64, -4.81, -3.85, -3.11, -3.06, -2.44, -1.49, -0.71, -0.67, 0.0, 0.0, 1.19, 2.66, 2.66, 4.56, 4.56, 3.91, 4.71, 3.91, 2.54, 1.14, 0.0, -1.47, 0.0, 0.0, 1.33, 0.0, -3.62, -4.47, -5.14, -5.09, -5.0, -4.5, -4.3, -4.32, -4.58, -5.2, -5.98, -3.68, -3.68, -3.39, -1.33, -1.2, -1.62, 0.0, 0.0, 0.0, 0.0, -1.38, -1.38, -1.43, -1.43, -1.48, -1.48, -1.53, -1.58, -1.58, -1.58, -3.2, -2.89, -2.89, -2.89, -2.89, -2.64, -2.64, -3.88, -3.88, -3.58, -3.69, -3.42, -3.42, -4.47, -4.47, -4.47, -4.34, -4.21, -4.21, -4.08, -4.08, -4.08, -4.21, -4.21, -4.21, -3.81, -3.81, -3.46, -3.81, -4.21, -4.52, -4.89, -5.15, -5.18, -6.33, -6.0, -5.91, -6.29, -7.1, -8.05, -8.05, -5.78, -3.78, -3.61, -2.83, -2.9, -1.58, -1.65, -0.79, 0.0, 0.0, 0.61, 1.73, 2.82, 4.56, 4.56, 4.83, 4.46, 2.66, 1.32, 0.0, -1.2, -1.54, -1.84, -1.33, 0.0, 0.0, 0.0, -1.42, -3.82, -6.2, -6.67, -6.48, -6.72, -6.44, -5.4, -5.54, -5.0, -5.0, -3.53, -3.53, -1.62, -1.62, -1.62, 0.0, 0.0, 0.0, 0.0, -1.38, -1.38, -1.43, -1.43, -1.48, -1.48, -1.53, -1.53, -1.53, -1.58, -3.1, -2.89, -2.89, -2.89, -2.89, -2.89, -2.64, -3.88, -3.88, -3.58, -3.69, -3.69, -3.42, -4.47, -4.47, -4.47, -4.34, -4.21, -4.08, -4.08, -3.94, -3.94, -3.94, -4.08, -4.21, -3.68, -3.68, -3.68, -3.68, -3.94, -4.38, -4.74, -5.55, -4.99, -4.87, -5.48, -4.27, -3.0, -2.4, -4.39, -5.4, -4.54, -3.21, -3.88, -3.7, -3.06, -2.31, -1.65, -0.84, 0.0, 0.0, 0.67, 1.94, 4.56, 4.56, 4.56, 4.83, 3.6, 2.66, 1.25, 0.0, -1.05, -1.94, -1.84, -1.76, -1.63, 0.0, 1.77, 2.13, 0.0, -1.56, -4.95, -6.17, -6.73, -7.19, -6.4, -5.0, -4.23, -2.95, -1.58, -1.84, -1.69, 0.0, 0.0, 0.0, 0.0, 0.0, 0.0, -1.38, -1.38, -1.43, -1.43, -1.48, -1.48, -1.53, -1.53, -1.58, -1.58, -3.1, -2.89, -2.89, -2.89, -2.89, -2.89, -2.64, -2.64, -3.88, -3.58, -3.69, -3.69, -4.47, -4.47, -4.47, -4.47, -4.34, -4.21, -4.08, -3.94, -3.94, -3.94, -3.94, -3.94, -3.94, -3.94, -3.56, -3.68, -3.68, -3.68, -4.24, -5.55, -5.36, -4.81, -4.68, -4.75, -4.24, -3.46, -3.02, -2.16, -2.19, -2.02, -1.75, -2.57, -2.23, -3.15, -2.31, -1.58, -0.84, 0.0, 0.0, 0.67, 1.88, 2.66, 4.83, 4.83, 3.6, 2.26, 2.4, 0.0, 0.0, -2.33, -1.94, -1.84, -1.76, -0.82, 0.0, 0.86, 1.72, 2.01, 2.53, 1.51, 0.0, -3.98, -4.87, -4.39, -4.08, -3.07, -1.33, -1.52, 0.0, 0.0, 0.0, 0.0, 0.0, 0.0, 0.0, 0.0, -1.38, -1.38, -1.43, -1.43, -1.43, -1.48, -1.48, -1.53, -1.58, -1.58, -1.58, -3.1, -2.89, -2.89, -2.89, -2.89, -2.64, -3.88, -3.88, -3.88, -3.58, -3.69, -4.81, -4.47, -4.47, -4.47, -4.34, -4.21, -4.08, -4.08, -3.94, -3.81, -3.81, -3.81, -3.81, -3.81, -3.81, -3.56, -3.68, -3.56, -3.81, -4.99, -5.36, -4.81, -4.3, -5.06, -5.11, -4.36, -3.81, -2.93, -1.84, -1.76, -0.81, -0.77, -1.58, -2.31, -2.31, -1.75, -0.84, 0.0, 0.89, 0.72, 1.3, 2.11, 2.88, 3.15, 1.58, 1.18, 0.0, 0.0, -1.14, -1.05, -1.11, -0.93, -0.85, 0.0, 0.0, 0.0, 0.83, 1.65, 2.89, 2.42, 0.0, 0.0, -1.6, -3.47, -3.04, -2.82, -1.58, -2.28, 0.0, -1.47, -1.54, -1.54, -1.54, -1.75, -1.75, -1.75, -1.38, -1.38, -1.43, -1.43, -1.66, -1.66, -1.48, -1.53, -1.53, -1.58, -1.58, -3.1, -2.89, -2.89, -2.89, -2.89, -2.89, -3.88, -3.88, -3.88, -3.58, -3.69, -4.81, -4.81, -4.47, -4.47, -4.34, -4.21, -4.08, -4.08, -3.94, -3.81, -4.1, -3.96, -3.68, -3.68, -3.68, -3.68, -3.56, -3.56, -4.65, -4.99, -5.36, -4.99, -4.3, -5.06, -4.93, -4.49, -4.81, -3.68, -2.6, -1.62, -0.74, -0.71, -0.8, -0.8, -0.89, -0.84, 0.0, 0.0, 0.0, 0.78, 0.67, 1.47, 2.11, 1.67, 0.0, 0.0, 0.0, 0.0, 0.0, 0.0, 0.0, 0.0, 0.0, 0.0, 0.0, 0.0, 0.83, 1.64, 1.65, 1.94, 0.0, 0.0, -1.45, -3.07, -2.91, -2.82, -3.07, -2.82, -2.46, -2.46, -2.58, -2.97, -3.11, -3.65, -3.65, -3.65, -1.38, -1.38, -1.43, -1.61, -1.61, -1.66, -1.53, -1.53, -1.53, -1.53, -1.58, -3.1, -3.1, -2.89, -2.89, -2.89, -2.89, -3.88, -3.88, -3.76, -3.76, -4.66, -4.81, -4.81, -4.81, -4.47, -4.34, -4.21, -4.08, -4.08, -3.94, -3.94, -4.1, -3.96, -4.81, -4.33, -4.33, -3.68, -3.44, -3.44, -4.49, -4.49, -4.81, -4.99, -5.0, -5.06, -5.25, -5.25, -4.64, -4.62, -3.67, -2.49, -1.54, -0.74, -0.73, 0.0, 0.0, 0.0, 0.0, 0.0, 0.0, 0.0, 0.0, 0.7, 1.55, 1.95, 1.84, 0.0, 0.0, 0.0, 0.0, 0.0, 0.0, 0.0, 0.0, -0.98, 0.0, 0.0, 0.0, 0.86, 0.8, 0.84, 1.16, 0.0, -2.99, -5.81, -5.45, -4.8, -5.32, -4.66, -3.87, -2.58, -2.58, -4.2, -4.2, -3.49, -3.49, -3.49, -1.38, -1.38, -1.61, -1.61, -1.61, -1.66, -1.53, -1.53, -1.53, -1.58, -1.58, -3.1, -3.2, -2.89, -2.89, -2.89, -4.24, -3.88, -3.88, -3.88, -3.88, -4.66, -4.81, -4.81, -4.81, -4.66, -4.34, -4.21, -4.08, -3.94, -3.94, -3.94, -4.1, -4.81, -4.81, -4.64, -4.33, -4.33, -4.33, -4.21, -4.21, -4.49, -4.81, -4.99, -5.57, -5.6, -5.43, -5.25, -4.47, -4.44, -4.25, -3.36, -2.39, -1.43, -0.71, -0.67, 0.0, 0.0, 0.0, 0.0, 0.0, 0.0, 0.0, 0.0, 0.81, 1.32, 2.49, 1.18, 0.0, -1.2, -1.11, -2.28, 0.0, 0.0, -1.04, -1.04, 0.0, 0.0, 0.0, 0.0, 0.0, 0.0, 0.86, 0.0, -2.72, -7.4, -5.36, -4.03, -3.77, -3.99, -4.71, -3.8, -2.69, -2.54, -2.99, -4.14, -4.14, -4.14, -1.55, -1.55, -1.61, -1.61, -1.61, -1.66, -1.53, -1.53, -1.53, -1.58, -1.58, -3.1, -3.2, -3.2, -2.89, -2.89, -4.24, -4.24, -3.88, -3.88, -3.88, -3.88, -4.81, -4.81, -4.66, -4.66, -4.66, -4.21, -4.08, -4.08, -3.94, -4.24, -4.99, -4.81, -4.81, -4.64, -4.64, -4.33, -4.33, -4.33, -4.06, -4.33, -4.64, -4.99, -5.78, -5.6, -5.8, -5.6, -5.57, -4.44, -4.6, -4.07, -3.36, -2.01, -1.29, -0.67, -0.67, -0.69, -0.71, -0.71, -0.79, -0.69, -0.67, 0.0, 0.0, 0.0, 1.23, 1.1, 0.0, -1.14, -3.35, -3.52, -3.7, -1.22, 0.0, 0.0, 0.0, 0.0, 0.0, 0.0, 0.0, 0.0, 0.0, 0.0, -1.37, -9.73, -6.95, -3.63, -1.99, -1.99, -2.32, -2.49, -1.23, -1.32, -2.49, -2.49, -2.49, -2.49, -1.55, -1.55, -1.55, -1.61, -1.61, -1.61, -1.48, -1.53, -1.53, -1.58, -1.58, -3.2, -3.2, -3.2, -2.89, -2.89, -4.24, -4.24, -3.88, -3.88, -3.88, -3.88, -4.66, -4.66, -4.66, -4.66, -4.66, -4.52, -4.08, -4.08, -3.94, -5.16, -4.99, -4.99, -4.81, -4.64, -4.64, -4.47, -4.17, -4.17, -4.06, -4.33, -4.64, -4.81, -5.78, -5.99, -5.8, -5.6, -5.78, -5.35, -5.29, -4.4, -4.07, -2.83, -2.06, -1.32, -1.32, -1.36, -0.69, -0.67, -1.32, -1.26, -0.67, -0.76, -0.76, 0.0, 0.0, 1.23, 0.0, 0.0, -2.4, -3.35, -4.66, -4.88, -1.22, -1.04, 0.0, 0.0, 0.0, 0.0, 0.0, 0.0, 0.0, 0.0, -4.45, -11.7, -10.73, 0.0, 0.0, 0.0, 0.0, 0.0, 0.0, 0.0, 0.0, -2.26, -2.26, -2.26, -1.55, -1.55, -1.55, -1.61, -1.61, -1.61, -1.48, -1.53, -1.53, -1.58, -1.58, -3.2, -3.2, -3.2, -2.89, -2.89, -4.24, -4.24, -4.24, -3.88, -3.88, -3.88, -5.04, -4.66, -4.66, -4.66, -4.52, -4.52, -4.38, -5.16, -5.16, -4.99, -4.99, -4.99, -4.81, -4.64, -4.64, -4.47, -4.17, -4.17, -4.17, -4.17, -4.47, -4.81, -5.57, -5.57, -6.48, -6.08, -6.48, -5.75, -5.52, -5.29, -4.4, -3.21, -2.83, -2.69, -1.95, -1.95, -1.36, -1.28, -1.23, -1.14, -1.26, -1.41, -0.82, -0.82, 0.0, 0.0, 1.1, 1.18, 0.0, -3.17, -4.21, -5.72, -3.87, -2.28, -1.04, 0.0, -0.85, -0.82, -0.85, -0.85, -0.86, -1.37, -3.16, -0.0, 3.82, -0.0, 0.0, 0.0, 0.0, 3.2, 3.0, 3.79, 5.37, 3.8, 3.8, 3.8, -1.55, -1.55, -1.55, -1.55, -1.61, -1.61, -1.66, -1.66, -1.53, -1.53, -3.1, -3.1, -3.2, -3.2, -3.2, -2.89, -4.24, -4.24, -4.24, -4.0, -3.88, -3.88, -5.04, -5.04, -4.66, -4.52, -4.52, -5.5, -5.33, -5.16, -5.16, -4.99, -4.99, -4.81, -4.81, -4.64, -4.64, -4.47, -4.47, -4.01, -4.17, -4.17, -4.17, -4.47, -4.62, -5.35, -6.24, -6.24, -6.24, -5.75, -5.52, -5.7, -4.4, -4.4, -3.21, -3.06, -2.9, -2.9, -2.75, -2.0, -1.76, -1.8, -1.23, -1.36, -1.52, -1.52, -0.72, 0.0, 1.01, 1.01, 0.0, -1.05, -2.33, -3.6, -4.22, -4.44, -3.14, -1.94, -2.7, -2.59, -2.59, -1.69, -1.71, -2.65, -7.14, -0.0, 2.71, -0.0, -0.0, 0.0, 0.0, 5.06, 6.8, 7.6, 8.94, 8.94, 8.94, 8.94, -1.55, -1.55, -1.55, -1.55, -1.55, -1.61, -1.66, -1.72, -1.72, -1.53, -3.01, -3.1, -3.2, -3.2, -3.2, -4.24, -4.24, -4.24, -4.24, -4.37, -4.0, -5.04, -5.04, -5.04, -4.52, -4.52, -5.5, -5.33, -5.33, -5.16, -5.16, -4.99, -4.99, -4.81, -4.81, -4.64, -4.64, -4.47, -4.47, -4.01, -4.01, -4.17, -4.17, -4.3, -4.62, -5.52, -5.76, -5.76, -5.76, -6.15, -5.95, -5.7, -4.78, -4.4, -3.65, -3.21, -3.06, -3.06, -2.9, -2.6, -2.44, -1.76, -1.8, -1.98, -2.12, -1.63, -1.63, -0.72, 0.0, 0.0, 0.0, 0.0, 0.0, 0.0, -2.46, -3.35, -4.68, -3.63, -3.49, -3.65, -3.49, -3.36, -1.7, -2.5, -10.73, -4.95, 2.06, -0.0, -0.0, -0.0, 0.0, 8.05, 8.05, 8.94, 9.39, 8.49, 8.49, 8.49, -1.55, -1.55, -1.55, -1.55, -1.55, -1.55, -1.61, -1.66, -1.66, -1.48, -3.01, -3.1, -3.1, -3.2, -3.2, -4.66, -4.24, -4.24, -4.24, -4.37, -5.64, -5.19, -5.19, -5.04, -5.92, -5.5, -5.5, -5.33, -5.33, -5.16, -4.99, -4.99, -4.81, -4.81, -4.81, -4.99, -4.64, -4.47, -4.3, -4.3, -4.01, -4.01, -4.01, -4.3, -4.44, -5.52, -5.52, -5.76, -5.52, -5.9, -5.7, -5.7, -4.99, -4.78, -3.65, -3.49, -3.49, -4.0, -3.8, -3.6, -2.99, -2.66, -2.49, -2.49, -2.72, -2.12, -2.35, -1.63, 0.0, 0.0, 0.0, 0.0, 0.0, 0.0, -1.11, -2.17, -4.44, -4.74, -4.56, -4.2, -4.2, -3.36, -2.49, -2.24, -12.52, -3.69, 1.49, -0.0, -0.0, -0.0, -0.0, 0.0, 0.0, 0.0, 0.0, 0.0, 0.0, 0.0, -1.55, -1.55, -1.55, -1.55, -1.61, -1.61, -1.61, -1.61, -1.66, -3.25, -3.01, -3.1, -3.1, -3.2, -4.66, -4.66, -4.24, -4.24, -4.24, -5.48, -5.64, -5.19, -5.19, -6.1, -5.92, -5.92, -5.5, -5.33, -5.16, -5.16, -4.99, -4.81, -4.81, -5.18, -4.99, -4.99, -4.99, -4.47, -4.47, -4.3, -4.3, -4.01, -4.01, -4.3, -4.44, -4.8, -5.52, -5.9, -5.9, -5.9, -5.7, -4.99, -4.99, -4.78, -3.99, -3.65, -3.49, -3.32, -4.0, -3.8, -3.6, -2.82, -2.66, -2.66, -2.9, -2.9, -2.26, -2.51, -1.63, -1.01, -1.07, -0.94, -1.0, -1.0, -2.06, -2.98, -3.8, -4.74, -4.34, -4.2, -3.49, -3.49, -2.59, -2.82, -10.12, -5.64, -0.0, -0.0, -0.0, -0.0, -0.0, -0.0, 0.0, 0.0, 0.0, 0.0, 0.0, 0.0, -1.55, -1.55, -1.55, -1.55, -1.61, -1.61, -1.61, -1.66, -1.66, -3.25, -3.01, -3.01, -3.1, -3.2, -4.66, -4.66, -4.66, -4.24, -4.24, -5.64, -5.64, -5.64, -5.19, -6.1, -5.92, -5.92, -5.73, -5.33, -5.16, -4.99, -4.99, -4.81, -5.18, -4.99, -4.99, -4.99, -4.81, -4.81, -4.47, -4.3, -4.3, -4.3, -4.01, -4.13, -4.44, -4.8, -5.52, -5.9, -5.9, -5.9, -5.7, -4.78, -4.99, -4.78, -3.99, -3.65, -3.49, -3.49, -4.0, -3.8, -3.6, -3.4, -2.66, -3.2, -3.47, -3.47, -2.9, -2.26, -2.51, -1.96, -1.01, 0.0, 0.0, 0.0, -1.95, -2.98, -4.5, -4.94, -4.34, -4.2, -3.49, -3.49, -3.36, -2.82, -7.13, -8.18, -0.0, -0.0, -0.0, -0.0, -0.0, -0.0, -0.0, -0.0, -0.0, -6.64, -6.64, -6.64, -1.55, -1.55, -1.55, -1.55, -1.61, -1.61, -1.61, -1.66, -3.25, -3.25, -3.36, -3.01, -3.1, -4.52, -4.66, -4.52, -4.52, -4.24, -5.48, -5.48, -5.64, -5.64, -6.29, -6.29, -5.92, -5.73, -5.73, -5.73, -5.55, -5.36, -5.36, -5.18, -5.18, -4.99, -4.99, -4.99, -4.99, -4.81, -4.81, -4.3, -4.3, -4.3, -4.13, -4.13, -4.44, -4.8, -4.6, -5.29, -5.9, -5.9, -5.7, -4.78, -4.78, -4.78, -3.99, -3.81, -3.49, -3.49, -3.49, -4.0, -3.8, -3.6, -3.4, -3.47, -3.47, -3.47, -3.47, -3.09, -3.09, -2.06, -1.23, 0.0, 0.0, 0.0, 0.0, -1.75, -2.69, -4.5, -4.74, -3.63, -3.49, -3.36, -3.51, -3.39, -6.2, -14.42, -2.28, -0.0, -0.0, -0.0, -0.0, -0.0, -0.0, -0.0, -0.0, -4.2, -4.2, -4.2, -1.77, -1.77, -1.77, -1.55, -1.55, -1.61, -1.61, -3.14, -3.25, -3.25, -3.36, -3.01, -3.1, -4.52, -4.52, -4.52, -4.52, -5.31, -5.48, -5.48, -5.48, -6.8, -6.8, -6.1, -5.92, -5.73, -5.73, -6.42, -6.42, -6.21, -6.21, -5.99, -4.99, -4.99, -4.99, -4.99, -4.99, -4.81, -4.81, -4.81, -4.3, -4.3, -4.3, -4.13, -4.44, -4.8, -4.99, -5.29, -5.29, -5.9, -5.46, -5.46, -4.78, -4.78, -3.99, -3.81, -3.49, -3.32, -3.21, -4.0, -4.0, -3.8, -3.6, -3.69, -3.69, -3.69, -3.69, -3.69, -3.91, -2.82, -1.93, -0.94, 0.0, 0.0, 0.0, 0.0, -1.84, -4.5, -4.5, -5.21, -4.2, -4.25, -4.25, -3.39, -4.81, -13.59, -5.31, -1.91, -1.69, -1.62, -0.0, -0.0, -0.0, -2.97, -2.97, -6.32, -6.32, -6.32, -1.77, -1.77, -1.83, -1.83, -1.61, -1.61, -3.14, -3.14, -3.14, -3.25, -3.25, -3.36, -4.52, -4.52, -4.52, -4.52, -5.81, -5.81, -5.31, -5.48, -6.6, -6.6, -6.6, -6.6, -5.92, -6.64, -6.64, -6.42, -6.42, -6.21, -6.21, -5.99, -5.78, -4.99, -4.99, -4.81, -4.81, -4.81, -4.81, -4.62, -4.62, -4.3, -4.3, -4.13, -4.44, -4.8, -5.21, -5.7, -5.29, -5.29, -5.46, -5.46, -4.78, -4.78, -4.56, -3.81, -3.49, -3.32, -3.06, -3.7, -4.0, -3.8, -3.8, -3.6, -3.69, -4.22, -4.22, -4.46, -4.46, -3.69, -2.49, -1.67, -0.59, 0.0, 0.0, -0.94, -1.75, -3.45, -4.34, -5.21, -5.06, -4.25, -4.25, -4.44, -4.12, -7.93, -13.44, -6.21, -4.15, -3.65, -3.49, -3.65, -3.49, -4.0, -6.32, -7.44, -7.44, -7.44, -1.77, -1.77, -1.83, -1.83, -1.61, -1.61, -3.14, -3.14, -3.14, -3.25, -3.25, -3.36, -4.52, -4.52, -4.52, -4.52, -5.81, -5.81, -5.31, -5.48, -6.6, -6.6, -6.6, -6.6, -5.92, -6.64, -6.64, -6.42, -6.42, -6.21, -6.21, -5.99, -5.78, -4.99, -4.99, -4.81, -4.81, -4.81, -4.81, -4.62, -4.62, -4.3, -4.3, -4.13, -4.44, -4.8, -5.21, -5.7, -5.29, -5.29, -5.46, -5.46, -4.78, -4.78, -4.56, -3.81, -3.49, -3.32, -3.06, -3.7, -4.0, -3.8, -3.8, -3.6, -3.69, -4.22, -4.22, -4.46, -4.46, -3.69, -2.49, -1.67, -0.59, 0.0, 0.0, -0.94, -2.69, -3.45, -4.34, -5.21, -5.06, -4.92, -5.14, -4.44, -4.62, -5.27, -12.45, -10.01, -5.98, -5.75, -3.82, -4.83, -4.83, -5.63, -6.64, -6.64, -6.64, -6.64]}]